Wetterdaten: Dienstag, 19.02.2019
Datum Zeit Temp. Aussen Temp. o. S. +5cm Feuchte Auss Luftdruck Regen Sonnenschein Regendauer Solar Windben Empfang
19.02.2019 00:00 8,1 C 7,8 C 7,2 C 74 % 1013,7 hPa 0,0 l/m 0 min 0 min 0 W/m 12,9 km/h (3 Bft) 100,00 %
19.02.2019 00:02 8,2 C 7,8 C 7,2 C 74 % 1013,6 hPa 0,0 l/m 0 min 0 min 0 W/m 9,7 km/h (2 Bft) 97,50 %
19.02.2019 00:04 8,2 C 7,8 C 7,2 C 74 % 1013,7 hPa 0,0 l/m 0 min 0 min 0 W/m 9,7 km/h (2 Bft) 100,00 %
19.02.2019 00:07 8,2 C 7,8 C 7,2 C 74 % 1013,5 hPa 0,0 l/m 0 min 0 min 0 W/m 12,9 km/h (3 Bft) 100,00 %
19.02.2019 00:08 8,2 C 7,8 C 7,2 C 74 % 1013,5 hPa 0,0 l/m 0 min 0 min 0 W/m 9,7 km/h (2 Bft) 100,00 %
19.02.2019 00:10 8,3 C 7,8 C 7,2 C 74 % 1013,7 hPa 0,0 l/m 0 min 0 min 0 W/m 12,9 km/h (3 Bft) 97,87 %
19.02.2019 00:12 8,3 C 7,8 C 7,2 C 74 % 1013,6 hPa 0,0 l/m 0 min 0 min 0 W/m 9,7 km/h (2 Bft) 100,00 %
19.02.2019 00:14 8,3 C 7,8 C 7,2 C 74 % 1013,7 hPa 0,0 l/m 0 min 0 min 0 W/m 12,9 km/h (3 Bft) 100,00 %
19.02.2019 00:16 8,3 C 7,8 C 7,2 C 74 % 1013,6 hPa 0,0 l/m 0 min 0 min 0 W/m 9,7 km/h (2 Bft) 100,00 %
19.02.2019 00:18 8,3 C 7,8 C 7,2 C 74 % 1013,6 hPa 0,0 l/m 0 min 0 min 0 W/m 9,7 km/h (2 Bft) 100,00 %
19.02.2019 00:20 8,3 C 7,8 C 7,2 C 74 % 1013,6 hPa 0,0 l/m 0 min 0 min 0 W/m 6,4 km/h (2 Bft) 100,00 %
19.02.2019 00:22 8,3 C 7,8 C 6,7 C 74 % 1013,6 hPa 0,0 l/m 0 min 0 min 0 W/m 9,7 km/h (2 Bft) 100,00 %
19.02.2019 00:24 8,3 C 7,8 C 6,7 C 74 % 1013,7 hPa 0,0 l/m 0 min 0 min 0 W/m 9,7 km/h (2 Bft) 100,00 %
19.02.2019 00:26 8,3 C 7,8 C 6,7 C 74 % 1013,7 hPa 0,0 l/m 0 min 0 min 0 W/m 12,9 km/h (3 Bft) 97,87 %
19.02.2019 00:28 8,3 C 7,8 C 7,2 C 74 % 1013,6 hPa 0,0 l/m 0 min 0 min 0 W/m 6,4 km/h (2 Bft) 97,87 %
19.02.2019 00:30 8,3 C 7,8 C 6,7 C 74 % 1013,6 hPa 0,0 l/m 0 min 0 min 0 W/m 16,1 km/h (3 Bft) 95,65 %
19.02.2019 00:32 8,3 C 7,8 C 6,7 C 74 % 1013,6 hPa 0,0 l/m 0 min 0 min 0 W/m 16,1 km/h (3 Bft) 97,87 %
19.02.2019 00:34 8,3 C 7,8 C 6,7 C 74 % 1013,6 hPa 0,0 l/m 0 min 0 min 0 W/m 9,7 km/h (2 Bft) 97,87 %
19.02.2019 00:36 8,3 C 7,8 C 6,7 C 74 % 1013,6 hPa 0,0 l/m 0 min 0 min 0 W/m 9,7 km/h (2 Bft) 97,87 %
19.02.2019 00:38 8,3 C 7,8 C 6,7 C 74 % 1013,5 hPa 0,0 l/m 0 min 0 min 0 W/m 9,7 km/h (2 Bft) 95,74 %
19.02.2019 00:40 8,3 C 7,8 C 6,7 C 74 % 1013,6 hPa 0,0 l/m 0 min 0 min 0 W/m 9,7 km/h (2 Bft) 95,74 %
19.02.2019 00:42 8,3 C 7,8 C 6,7 C 74 % 1013,7 hPa 0,0 l/m 0 min 0 min 0 W/m 9,7 km/h (2 Bft) 97,83 %
19.02.2019 00:44 8,3 C 7,8 C 6,7 C 74 % 1013,6 hPa 0,0 l/m 0 min 0 min 0 W/m 9,7 km/h (2 Bft) 95,74 %
19.02.2019 00:46 8,3 C 7,8 C 6,7 C 74 % 1013,6 hPa 0,0 l/m 0 min 0 min 0 W/m 12,9 km/h (3 Bft) 95,74 %
19.02.2019 00:48 8,3 C 7,8 C 7,2 C 74 % 1013,6 hPa 0,0 l/m 0 min 0 min 0 W/m 9,7 km/h (2 Bft) 95,74 %
19.02.2019 00:50 8,3 C 7,8 C 7,2 C 74 % 1013,6 hPa 0,0 l/m 0 min 0 min 0 W/m 12,9 km/h (3 Bft) 95,74 %
19.02.2019 00:52 8,3 C 7,8 C 7,2 C 74 % 1013,5 hPa 0,0 l/m 0 min 0 min 0 W/m 12,9 km/h (3 Bft) 97,87 %
19.02.2019 00:54 8,3 C 7,8 C 7,2 C 74 % 1013,6 hPa 0,0 l/m 0 min 0 min 0 W/m 9,7 km/h (2 Bft) 95,65 %
19.02.2019 00:56 8,3 C 7,8 C 7,2 C 74 % 1013,7 hPa 0,0 l/m 0 min 0 min 0 W/m 9,7 km/h (2 Bft) 95,74 %
19.02.2019 00:58 8,3 C 7,8 C 7,2 C 74 % 1013,6 hPa 0,0 l/m 0 min 0 min 0 W/m 9,7 km/h (2 Bft) 95,74 %
19.02.2019 01:00 8,2 C 7,8 C 7,2 C 74 % 1013,7 hPa 0,0 l/m 0 min 0 min 0 W/m 6,4 km/h (2 Bft) 91,49 %
19.02.2019 01:02 8,3 C 7,8 C 6,7 C 74 % 1013,8 hPa 0,0 l/m 0 min 0 min 0 W/m 9,7 km/h (2 Bft) 96,00 %
19.02.2019 01:04 8,3 C 7,8 C 6,7 C 74 % 1013,7 hPa 0,0 l/m 0 min 0 min 0 W/m 9,7 km/h (2 Bft) 95,65 %
19.02.2019 01:06 8,3 C 7,8 C 6,7 C 74 % 1013,7 hPa 0,0 l/m 0 min 0 min 0 W/m 6,4 km/h (2 Bft) 95,74 %
19.02.2019 01:08 8,2 C 7,8 C 6,7 C 74 % 1013,8 hPa 0,0 l/m 0 min 0 min 0 W/m 9,7 km/h (2 Bft) 95,74 %
19.02.2019 01:10 8,2 C 7,8 C 6,7 C 74 % 1013,8 hPa 0,0 l/m 0 min 0 min 0 W/m 9,7 km/h (2 Bft) 93,62 %
19.02.2019 01:12 8,2 C 7,8 C 6,7 C 74 % 1013,8 hPa 0,0 l/m 0 min 0 min 0 W/m 9,7 km/h (2 Bft) 93,62 %
19.02.2019 01:14 8,2 C 7,2 C 6,7 C 74 % 1013,8 hPa 0,0 l/m 0 min 0 min 0 W/m 6,4 km/h (2 Bft) 91,49 %
19.02.2019 01:16 8,2 C 7,2 C 6,7 C 74 % 1013,7 hPa 0,0 l/m 0 min 0 min 0 W/m 6,4 km/h (2 Bft) 93,48 %
19.02.2019 01:18 8,2 C 7,2 C 6,7 C 74 % 1013,8 hPa 0,0 l/m 0 min 0 min 0 W/m 6,4 km/h (2 Bft) 95,74 %
19.02.2019 01:20 8,2 C 7,2 C 6,7 C 74 % 1013,8 hPa 0,0 l/m 0 min 0 min 0 W/m 9,7 km/h (2 Bft) 93,62 %
19.02.2019 01:22 8,2 C 7,2 C 6,7 C 74 % 1013,8 hPa 0,0 l/m 0 min 0 min 0 W/m 6,4 km/h (2 Bft) 93,62 %
19.02.2019 01:24 8,2 C 7,2 C 6,7 C 74 % 1013,9 hPa 0,0 l/m 0 min 0 min 0 W/m 6,4 km/h (2 Bft) 93,62 %
19.02.2019 01:26 8,2 C 7,2 C 6,7 C 74 % 1013,9 hPa 0,0 l/m 0 min 0 min 0 W/m 3,2 km/h (1 Bft) 95,74 %
19.02.2019 01:28 8,2 C 7,2 C 6,7 C 74 % 1013,9 hPa 0,0 l/m 0 min 0 min 0 W/m 6,4 km/h (2 Bft) 93,48 %
19.02.2019 01:30 8,2 C 7,2 C 6,7 C 74 % 1013,8 hPa 0,0 l/m 0 min 0 min 0 W/m 9,7 km/h (2 Bft) 93,62 %
19.02.2019 01:32 8,1 C 7,2 C 6,7 C 74 % 1013,8 hPa 0,0 l/m 0 min 0 min 0 W/m 6,4 km/h (2 Bft) 95,74 %
19.02.2019 01:34 8,1 C 7,2 C 6,7 C 74 % 1013,8 hPa 0,0 l/m 0 min 0 min 0 W/m 6,4 km/h (2 Bft) 97,87 %
19.02.2019 01:36 8,1 C 7,2 C 6,7 C 75 % 1013,8 hPa 0,0 l/m 0 min 0 min 0 W/m 9,7 km/h (2 Bft) 97,87 %
19.02.2019 01:38 8,1 C 7,2 C 6,7 C 75 % 1013,9 hPa 0,0 l/m 0 min 0 min 0 W/m 9,7 km/h (2 Bft) 93,62 %
19.02.2019 01:40 8,1 C 7,2 C 6,7 C 75 % 1013,8 hPa 0,0 l/m 0 min 0 min 0 W/m 9,7 km/h (2 Bft) 97,83 %
19.02.2019 01:42 8,1 C 7,2 C 6,7 C 75 % 1013,8 hPa 0,0 l/m 0 min 0 min 0 W/m 6,4 km/h (2 Bft) 97,87 %
19.02.2019 01:44 8,1 C 7,2 C 6,7 C 75 % 1013,8 hPa 0,0 l/m 0 min 0 min 0 W/m 9,7 km/h (2 Bft) 97,87 %
19.02.2019 01:46 8,1 C 7,2 C 6,7 C 75 % 1013,8 hPa 0,0 l/m 0 min 0 min 0 W/m 9,7 km/h (2 Bft) 93,62 %
19.02.2019 01:48 8,1 C 7,2 C 6,7 C 75 % 1013,9 hPa 0,0 l/m 0 min 0 min 0 W/m 6,4 km/h (2 Bft) 95,74 %
19.02.2019 01:50 8,0 C 7,2 C 6,7 C 75 % 1013,9 hPa 0,0 l/m 0 min 0 min 0 W/m 9,7 km/h (2 Bft) 97,87 %
19.02.2019 01:52 8,0 C 7,2 C 6,7 C 75 % 1013,9 hPa 0,0 l/m 0 min 0 min 0 W/m 9,7 km/h (2 Bft) 97,83 %
19.02.2019 01:54 8,0 C 7,2 C 6,7 C 75 % 1013,9 hPa 0,0 l/m 0 min 0 min 0 W/m 9,7 km/h (2 Bft) 95,74 %
19.02.2019 01:56 8,0 C 7,2 C 6,7 C 75 % 1013,9 hPa 0,0 l/m 0 min 0 min 0 W/m 9,7 km/h (2 Bft) 95,74 %
19.02.2019 01:58 7,9 C 7,2 C 6,1 C 75 % 1013,9 hPa 0,0 l/m 0 min 0 min 0 W/m 3,2 km/h (1 Bft) 97,87 %
19.02.2019 02:00 7,9 C 7,2 C 6,1 C 76 % 1013,9 hPa 0,0 l/m 0 min 0 min 0 W/m 9,7 km/h (2 Bft) 97,87 %
19.02.2019 02:02 7,9 C 7,2 C 6,7 C 75 % 1013,9 hPa 0,0 l/m 0 min 0 min 0 W/m 9,7 km/h (2 Bft) 97,83 %
19.02.2019 02:04 7,9 C 7,2 C 6,7 C 76 % 1013,9 hPa 0,0 l/m 0 min 0 min 0 W/m 9,7 km/h (2 Bft) 100,00 %
19.02.2019 02:06 7,9 C 7,2 C 6,7 C 76 % 1013,9 hPa 0,0 l/m 0 min 0 min 0 W/m 16,1 km/h (3 Bft) 100,00 %
19.02.2019 02:08 7,9 C 7,2 C 6,7 C 76 % 1013,9 hPa 0,0 l/m 0 min 0 min 0 W/m 6,4 km/h (2 Bft) 100,00 %
19.02.2019 02:10 7,9 C 7,2 C 6,1 C 76 % 1013,9 hPa 0,0 l/m 0 min 0 min 0 W/m 6,4 km/h (2 Bft) 97,87 %
19.02.2019 02:12 7,9 C 7,2 C 6,1 C 76 % 1013,9 hPa 0,0 l/m 0 min 0 min 0 W/m 6,4 km/h (2 Bft) 100,00 %
19.02.2019 02:14 7,9 C 7,2 C 6,1 C 76 % 1013,9 hPa 0,0 l/m 0 min 0 min 0 W/m 6,4 km/h (2 Bft) 100,00 %
19.02.2019 02:16 7,9 C 6,7 C 6,1 C 76 % 1013,9 hPa 0,0 l/m 0 min 0 min 0 W/m 6,4 km/h (2 Bft) 100,00 %
19.02.2019 02:18 7,8 C 6,7 C 6,1 C 76 % 1013,9 hPa 0,0 l/m 0 min 0 min 0 W/m 19,3 km/h (3 Bft) 100,00 %
19.02.2019 02:20 7,8 C 7,2 C 6,1 C 77 % 1014,0 hPa 0,0 l/m 0 min 0 min 0 W/m 9,7 km/h (2 Bft) 100,00 %
19.02.2019 02:22 7,8 C 7,2 C 6,1 C 77 % 1013,9 hPa 0,0 l/m 0 min 0 min 0 W/m 12,9 km/h (3 Bft) 100,00 %
19.02.2019 02:24 7,8 C 7,2 C 6,1 C 77 % 1014,0 hPa 0,0 l/m 0 min 0 min 0 W/m 9,7 km/h (2 Bft) 100,00 %
19.02.2019 02:26 7,8 C 7,2 C 6,7 C 77 % 1014,0 hPa 0,0 l/m 0 min 0 min 0 W/m 19,3 km/h (3 Bft) 100,00 %
19.02.2019 02:28 7,8 C 7,2 C 6,7 C 77 % 1014,0 hPa 0,0 l/m 0 min 0 min 0 W/m 16,1 km/h (3 Bft) 100,00 %
19.02.2019 02:30 7,8 C 7,2 C 6,7 C 78 % 1014,0 hPa 0,0 l/m 0 min 0 min 0 W/m 6,4 km/h (2 Bft) 100,00 %
19.02.2019 02:32 7,8 C 7,2 C 6,7 C 78 % 1013,9 hPa 0,0 l/m 0 min 0 min 0 W/m 9,7 km/h (2 Bft) 100,00 %
19.02.2019 02:34 7,8 C 7,2 C 6,7 C 78 % 1014,0 hPa 0,0 l/m 0 min 0 min 0 W/m 12,9 km/h (3 Bft) 100,00 %
19.02.2019 02:36 7,8 C 7,2 C 6,7 C 78 % 1014,0 hPa 0,0 l/m 0 min 0 min 0 W/m 12,9 km/h (3 Bft) 100,00 %
19.02.2019 02:38 7,8 C 7,2 C 6,7 C 78 % 1014,0 hPa 0,0 l/m 0 min 0 min 0 W/m 9,7 km/h (2 Bft) 100,00 %
19.02.2019 02:40 7,8 C 7,2 C 6,7 C 78 % 1014,1 hPa 0,0 l/m 0 min 0 min 0 W/m 6,4 km/h (2 Bft) 97,87 %
19.02.2019 02:42 7,8 C 7,2 C 6,1 C 78 % 1014,1 hPa 0,0 l/m 0 min 0 min 0 W/m 6,4 km/h (2 Bft) 100,00 %
19.02.2019 02:44 7,8 C 7,2 C 6,1 C 78 % 1014,1 hPa 0,0 l/m 0 min 0 min 0 W/m 9,7 km/h (2 Bft) 100,00 %
19.02.2019 02:46 7,8 C 7,2 C 6,1 C 79 % 1014,1 hPa 0,0 l/m 0 min 0 min 0 W/m 9,7 km/h (2 Bft) 100,00 %
19.02.2019 02:48 7,8 C 7,2 C 6,7 C 79 % 1014,1 hPa 0,0 l/m 0 min 0 min 0 W/m 12,9 km/h (3 Bft) 97,87 %
19.02.2019 02:50 7,8 C 7,2 C 6,1 C 79 % 1014,1 hPa 0,0 l/m 0 min 0 min 0 W/m 6,4 km/h (2 Bft) 97,83 %
19.02.2019 02:52 7,8 C 7,2 C 6,1 C 79 % 1014,1 hPa 0,0 l/m 0 min 0 min 0 W/m 12,9 km/h (3 Bft) 100,00 %
19.02.2019 02:54 7,8 C 6,7 C 6,1 C 79 % 1014,1 hPa 0,0 l/m 0 min 0 min 0 W/m 9,7 km/h (2 Bft) 97,87 %
19.02.2019 02:56 7,8 C 6,7 C 6,1 C 79 % 1014,1 hPa 0,0 l/m 0 min 0 min 0 W/m 9,7 km/h (2 Bft) 97,87 %
19.02.2019 02:58 7,7 C 6,7 C 6,1 C 79 % 1014,1 hPa 0,0 l/m 0 min 0 min 0 W/m 16,1 km/h (3 Bft) 97,87 %
19.02.2019 03:00 7,7 C 6,7 C 6,1 C 80 % 1014,2 hPa 0,0 l/m 0 min 0 min 0 W/m 12,9 km/h (3 Bft) 100,00 %
19.02.2019 03:02 7,7 C 6,7 C 6,1 C 80 % 1014,1 hPa 0,0 l/m 0 min 0 min 0 W/m 9,7 km/h (2 Bft) 95,65 %
19.02.2019 03:04 7,7 C 6,7 C 6,1 C 80 % 1014,1 hPa 0,0 l/m 0 min 0 min 0 W/m 9,7 km/h (2 Bft) 97,87 %
19.02.2019 03:06 7,7 C 6,7 C 6,1 C 80 % 1014,1 hPa 0,0 l/m 0 min 0 min 0 W/m 16,1 km/h (3 Bft) 97,87 %
19.02.2019 03:08 7,7 C 6,7 C 6,1 C 80 % 1014,1 hPa 0,0 l/m 0 min 0 min 0 W/m 6,4 km/h (2 Bft) 95,74 %
19.02.2019 03:10 7,7 C 6,7 C 6,1 C 80 % 1014,1 hPa 0,0 l/m 0 min 0 min 0 W/m 6,4 km/h (2 Bft) 97,14 %
19.02.2019 03:12 7,7 C 6,7 C 6,1 C 81 % 1014,2 hPa 0,0 l/m 0 min 0 min 0 W/m 6,4 km/h (2 Bft) 97,87 %
19.02.2019 03:14 7,6 C 6,7 C 6,1 C 81 % 1014,1 hPa 0,0 l/m 0 min 0 min 0 W/m 12,9 km/h (3 Bft) 97,87 %
19.02.2019 03:16 7,6 C 6,7 C 6,1 C 81 % 1014,2 hPa 0,0 l/m 0 min 0 min 0 W/m 12,9 km/h (3 Bft) 97,83 %
19.02.2019 03:18 7,6 C 6,7 C 6,1 C 81 % 1014,1 hPa 0,0 l/m 0 min 0 min 0 W/m 9,7 km/h (2 Bft) 97,87 %
19.02.2019 03:20 7,6 C 6,7 C 6,1 C 81 % 1014,1 hPa 0,0 l/m 0 min 0 min 0 W/m 9,7 km/h (2 Bft) 97,87 %
19.02.2019 03:22 7,6 C 6,7 C 6,1 C 82 % 1014,1 hPa 0,0 l/m 0 min 0 min 0 W/m 9,7 km/h (2 Bft) 95,74 %
19.02.2019 03:24 7,6 C 6,7 C 6,1 C 82 % 1014,2 hPa 0,0 l/m 0 min 0 min 0 W/m 12,9 km/h (3 Bft) 95,74 %
19.02.2019 03:26 7,6 C 6,7 C 6,1 C 82 % 1014,2 hPa 0,0 l/m 0 min 0 min 0 W/m 6,4 km/h (2 Bft) 97,87 %
19.02.2019 03:28 7,6 C 6,7 C 6,1 C 82 % 1014,2 hPa 0,0 l/m 0 min 0 min 0 W/m 6,4 km/h (2 Bft) 97,83 %
19.02.2019 03:30 7,6 C 6,7 C 6,1 C 83 % 1014,2 hPa 0,0 l/m 0 min 0 min 0 W/m 9,7 km/h (2 Bft) 97,87 %
19.02.2019 03:32 7,6 C 6,7 C 6,1 C 83 % 1014,1 hPa 0,0 l/m 0 min 0 min 0 W/m 9,7 km/h (2 Bft) 95,74 %
19.02.2019 03:34 7,6 C 6,7 C 6,1 C 83 % 1014,1 hPa 0,0 l/m 0 min 0 min 0 W/m 9,7 km/h (2 Bft) 97,87 %
19.02.2019 03:36 7,6 C 6,7 C 6,1 C 83 % 1014,0 hPa 0,0 l/m 0 min 0 min 0 W/m 6,4 km/h (2 Bft) 98,28 %
19.02.2019 03:38 7,6 C 6,7 C 6,1 C 83 % 1014,2 hPa 0,0 l/m 0 min 0 min 0 W/m 3,2 km/h (1 Bft) 97,87 %
19.02.2019 03:40 7,6 C 6,7 C 6,1 C 83 % 1014,3 hPa 0,0 l/m 0 min 0 min 0 W/m 9,7 km/h (2 Bft) 97,14 %
19.02.2019 03:42 7,6 C 6,7 C 6,1 C 83 % 1014,3 hPa 0,0 l/m 0 min 0 min 0 W/m 6,4 km/h (2 Bft) 97,87 %
19.02.2019 03:44 7,6 C 6,7 C 6,1 C 83 % 1014,3 hPa 0,0 l/m 0 min 0 min 0 W/m 6,4 km/h (2 Bft) 100,00 %
19.02.2019 03:46 7,6 C 6,7 C 6,1 C 84 % 1014,3 hPa 0,0 l/m 0 min 0 min 0 W/m 6,4 km/h (2 Bft) 97,87 %
19.02.2019 03:48 7,6 C 6,7 C 6,1 C 84 % 1014,2 hPa 0,0 l/m 0 min 0 min 0 W/m 6,4 km/h (2 Bft) 100,00 %
19.02.2019 03:50 7,5 C 6,7 C 6,1 C 84 % 1014,2 hPa 0,0 l/m 0 min 0 min 0 W/m 6,4 km/h (2 Bft) 97,87 %
19.02.2019 03:52 7,5 C 6,7 C 6,1 C 84 % 1014,2 hPa 0,0 l/m 0 min 0 min 0 W/m 12,9 km/h (3 Bft) 100,00 %
19.02.2019 03:54 7,5 C 6,7 C 6,1 C 84 % 1014,2 hPa 0,0 l/m 0 min 0 min 0 W/m 6,4 km/h (2 Bft) 100,00 %
19.02.2019 03:56 7,5 C 6,7 C 6,1 C 84 % 1014,3 hPa 0,0 l/m 0 min 0 min 0 W/m 6,4 km/h (2 Bft) 97,87 %
19.02.2019 03:58 7,5 C 6,7 C 6,1 C 85 % 1014,3 hPa 0,0 l/m 0 min 0 min 0 W/m 6,4 km/h (2 Bft) 100,00 %
19.02.2019 04:00 7,5 C 6,7 C 6,1 C 85 % 1014,3 hPa 0,0 l/m 0 min 2 min 0 W/m 6,4 km/h (2 Bft) 100,00 %
19.02.2019 04:02 7,4 C 6,7 C 6,1 C 85 % 1014,4 hPa 0,0 l/m 0 min 2 min 0 W/m 3,2 km/h (1 Bft) 100,00 %
19.02.2019 04:04 7,4 C 6,7 C 6,1 C 85 % 1014,4 hPa 0,0 l/m 0 min 2 min 0 W/m 6,4 km/h (2 Bft) 100,00 %
19.02.2019 04:06 7,4 C 6,7 C 5,6 C 85 % 1014,3 hPa 0,0 l/m 0 min 0 min 0 W/m 12,9 km/h (3 Bft) 100,00 %
19.02.2019 04:08 7,4 C 6,7 C 5,6 C 85 % 1014,4 hPa 0,0 l/m 0 min 0 min 0 W/m 6,4 km/h (2 Bft) 97,87 %
19.02.2019 04:10 7,4 C 6,7 C 5,6 C 85 % 1014,4 hPa 0,0 l/m 0 min 0 min 0 W/m 6,4 km/h (2 Bft) 97,14 %
19.02.2019 04:12 7,4 C 6,7 C 5,6 C 86 % 1014,4 hPa 0,0 l/m 0 min 2 min 0 W/m 6,4 km/h (2 Bft) 97,87 %
19.02.2019 04:14 7,4 C 6,1 C 5,6 C 86 % 1014,3 hPa 0,0 l/m 0 min 0 min 0 W/m 12,9 km/h (3 Bft) 97,83 %
19.02.2019 04:16 7,4 C 6,1 C 5,6 C 86 % 1014,3 hPa 0,0 l/m 0 min 0 min 0 W/m 6,4 km/h (2 Bft) 97,87 %
19.02.2019 04:18 7,4 C 6,1 C 5,6 C 86 % 1014,3 hPa 0,0 l/m 0 min 0 min 0 W/m 3,2 km/h (1 Bft) 97,87 %
19.02.2019 04:20 7,4 C 6,1 C 5,6 C 86 % 1014,4 hPa 0,0 l/m 0 min 0 min 0 W/m 9,7 km/h (2 Bft) 95,74 %
19.02.2019 04:22 7,4 C 6,1 C 5,6 C 86 % 1014,4 hPa 0,0 l/m 0 min 0 min 0 W/m 6,4 km/h (2 Bft) 97,87 %
19.02.2019 04:24 7,3 C 6,1 C 5,6 C 86 % 1014,4 hPa 0,0 l/m 0 min 0 min 0 W/m 6,4 km/h (2 Bft) 97,87 %
19.02.2019 04:26 7,3 C 6,1 C 5,6 C 86 % 1014,4 hPa 0,0 l/m 0 min 0 min 0 W/m 6,4 km/h (2 Bft) 93,48 %
19.02.2019 04:28 7,3 C 6,1 C 5,6 C 86 % 1014,5 hPa 0,0 l/m 0 min 0 min 0 W/m 6,4 km/h (2 Bft) 91,49 %
19.02.2019 04:30 7,3 C 6,1 C 5,6 C 87 % 1014,5 hPa 0,0 l/m 0 min 2 min 0 W/m 6,4 km/h (2 Bft) 93,62 %
19.02.2019 04:32 7,3 C 6,1 C 5,6 C 87 % 1014,5 hPa 0,0 l/m 0 min 2 min 0 W/m 3,2 km/h (1 Bft) 95,74 %
19.02.2019 04:34 7,3 C 6,1 C 5,6 C 87 % 1014,5 hPa 0,0 l/m 0 min 2 min 0 W/m 3,2 km/h (1 Bft) 95,74 %
19.02.2019 04:36 7,3 C 6,1 C 5,0 C 87 % 1014,5 hPa 0,0 l/m 0 min 2 min 0 W/m 6,4 km/h (2 Bft) 94,83 %
19.02.2019 04:38 7,3 C 5,6 C 5,0 C 87 % 1014,5 hPa 0,0 l/m 0 min 2 min 0 W/m 6,4 km/h (2 Bft) 94,29 %
19.02.2019 04:40 7,3 C 5,6 C 5,0 C 87 % 1014,5 hPa 0,0 l/m 0 min 2 min 0 W/m 6,4 km/h (2 Bft) 95,74 %
19.02.2019 04:42 7,2 C 5,6 C 5,0 C 87 % 1014,4 hPa 0,0 l/m 0 min 2 min 0 W/m 6,4 km/h (2 Bft) 95,74 %
19.02.2019 04:44 7,2 C 5,6 C 5,0 C 87 % 1014,4 hPa 0,0 l/m 0 min 0 min 0 W/m 6,4 km/h (2 Bft) 93,62 %
19.02.2019 04:46 7,2 C 5,6 C 5,0 C 87 % 1014,4 hPa 0,0 l/m 0 min 0 min 0 W/m 6,4 km/h (2 Bft) 95,74 %
19.02.2019 04:48 7,2 C 5,6 C 5,0 C 87 % 1014,4 hPa 0,0 l/m 0 min 0 min 0 W/m 6,4 km/h (2 Bft) 95,74 %
19.02.2019 04:50 7,2 C 5,6 C 5,0 C 88 % 1014,4 hPa 0,0 l/m 0 min 0 min 0 W/m 6,4 km/h (2 Bft) 95,65 %
19.02.2019 04:52 7,2 C 5,6 C 5,0 C 88 % 1014,6 hPa 0,0 l/m 0 min 0 min 0 W/m 6,4 km/h (2 Bft) 95,74 %
19.02.2019 04:54 7,2 C 5,6 C 5,0 C 88 % 1014,6 hPa 0,0 l/m 0 min 0 min 0 W/m 6,4 km/h (2 Bft) 95,74 %
19.02.2019 04:56 7,2 C 5,6 C 5,0 C 88 % 1014,6 hPa 0,0 l/m 0 min 0 min 0 W/m 6,4 km/h (2 Bft) 93,62 %
19.02.2019 04:58 7,1 C 5,6 C 5,0 C 88 % 1014,6 hPa 0,0 l/m 0 min 0 min 0 W/m 6,4 km/h (2 Bft) 93,62 %
19.02.2019 05:00 7,1 C 6,1 C 5,0 C 88 % 1014,6 hPa 0,0 l/m 0 min 0 min 0 W/m 6,4 km/h (2 Bft) 95,74 %
19.02.2019 05:02 7,1 C 6,1 C 5,0 C 88 % 1014,6 hPa 0,0 l/m 0 min 0 min 0 W/m 3,2 km/h (1 Bft) 97,83 %
19.02.2019 05:04 7,1 C 6,1 C 5,0 C 88 % 1014,5 hPa 0,0 l/m 0 min 0 min 0 W/m 6,4 km/h (2 Bft) 97,87 %
19.02.2019 05:06 7,1 C 6,1 C 5,0 C 88 % 1014,6 hPa 0,0 l/m 0 min 0 min 0 W/m 6,4 km/h (2 Bft) 98,11 %
19.02.2019 05:08 7,1 C 6,1 C 5,0 C 88 % 1014,6 hPa 0,0 l/m 0 min 0 min 0 W/m 6,4 km/h (2 Bft) 97,83 %
19.02.2019 05:10 7,1 C 6,1 C 5,0 C 88 % 1014,6 hPa 0,0 l/m 0 min 0 min 0 W/m 6,4 km/h (2 Bft) 95,74 %
19.02.2019 05:12 7,1 C 6,1 C 5,0 C 89 % 1014,6 hPa 0,0 l/m 0 min 0 min 0 W/m 6,4 km/h (2 Bft) 95,74 %
19.02.2019 05:14 7,1 C 6,1 C 5,0 C 89 % 1014,6 hPa 0,0 l/m 0 min 0 min 0 W/m 3,2 km/h (1 Bft) 93,62 %
19.02.2019 05:16 7,0 C 6,1 C 5,0 C 89 % 1014,7 hPa 0,0 l/m 0 min 0 min 0 W/m 6,4 km/h (2 Bft) 100,00 %
19.02.2019 05:18 7,0 C 6,1 C 5,0 C 89 % 1014,7 hPa 0,0 l/m 0 min 0 min 0 W/m 6,4 km/h (2 Bft) 95,74 %
19.02.2019 05:20 7,0 C 6,1 C 5,0 C 89 % 1014,8 hPa 0,0 l/m 0 min 0 min 0 W/m 3,2 km/h (1 Bft) 97,83 %
19.02.2019 05:22 7,0 C 6,1 C 5,0 C 89 % 1014,7 hPa 0,0 l/m 0 min 0 min 0 W/m 9,7 km/h (2 Bft) 93,62 %
19.02.2019 05:24 6,9 C 6,1 C 5,0 C 89 % 1014,7 hPa 0,0 l/m 0 min 0 min 0 W/m 6,4 km/h (2 Bft) 93,62 %
19.02.2019 05:26 6,9 C 6,1 C 5,6 C 89 % 1014,7 hPa 0,0 l/m 0 min 0 min 0 W/m 9,7 km/h (2 Bft) 91,49 %
19.02.2019 05:28 6,9 C 6,1 C 5,6 C 89 % 1014,7 hPa 0,0 l/m 0 min 0 min 0 W/m 9,7 km/h (2 Bft) 95,74 %
19.02.2019 05:30 6,9 C 6,1 C 5,6 C 89 % 1014,7 hPa 0,0 l/m 0 min 0 min 0 W/m 9,7 km/h (2 Bft) 95,65 %
19.02.2019 05:32 6,9 C 6,1 C 5,6 C 89 % 1014,8 hPa 0,0 l/m 0 min 0 min 0 W/m 9,7 km/h (2 Bft) 95,74 %
19.02.2019 05:34 6,9 C 6,1 C 5,6 C 90 % 1014,8 hPa 0,0 l/m 0 min 0 min 0 W/m 6,4 km/h (2 Bft) 97,87 %
19.02.2019 05:36 6,9 C 6,1 C 5,6 C 90 % 1014,8 hPa 0,0 l/m 0 min 0 min 0 W/m 6,4 km/h (2 Bft) 95,74 %
19.02.2019 05:38 6,9 C 6,1 C 5,6 C 90 % 1014,8 hPa 0,0 l/m 0 min 0 min 0 W/m 6,4 km/h (2 Bft) 97,87 %
19.02.2019 05:40 6,9 C 6,1 C 5,6 C 90 % 1014,9 hPa 0,0 l/m 0 min 0 min 0 W/m 6,4 km/h (2 Bft) 95,74 %
19.02.2019 05:42 6,9 C 6,1 C 5,6 C 90 % 1014,8 hPa 0,0 l/m 0 min 0 min 0 W/m 3,2 km/h (1 Bft) 97,83 %
19.02.2019 05:44 6,9 C 6,1 C 5,6 C 90 % 1014,8 hPa 0,0 l/m 0 min 0 min 0 W/m 6,4 km/h (2 Bft) 95,74 %
19.02.2019 05:46 6,9 C 6,1 C 5,6 C 90 % 1014,8 hPa 0,0 l/m 0 min 0 min 0 W/m 12,9 km/h (3 Bft) 97,87 %
19.02.2019 05:48 6,9 C 6,1 C 5,6 C 90 % 1014,9 hPa 0,0 l/m 0 min 0 min 0 W/m 12,9 km/h (3 Bft) 97,87 %
19.02.2019 05:50 6,9 C 6,1 C 5,6 C 90 % 1014,8 hPa 0,0 l/m 0 min 0 min 0 W/m 12,9 km/h (3 Bft) 95,74 %
19.02.2019 05:52 6,9 C 6,1 C 5,6 C 90 % 1014,9 hPa 0,0 l/m 0 min 0 min 0 W/m 9,7 km/h (2 Bft) 97,87 %
19.02.2019 05:54 6,9 C 6,1 C 5,6 C 90 % 1015,0 hPa 0,0 l/m 0 min 0 min 0 W/m 9,7 km/h (2 Bft) 95,65 %
19.02.2019 05:56 6,9 C 6,1 C 5,6 C 90 % 1015,0 hPa 0,0 l/m 0 min 0 min 0 W/m 9,7 km/h (2 Bft) 97,87 %
19.02.2019 05:58 6,9 C 6,7 C 5,6 C 90 % 1014,9 hPa 0,0 l/m 0 min 0 min 0 W/m 16,1 km/h (3 Bft) 97,87 %
19.02.2019 06:00 6,9 C 6,7 C 5,6 C 90 % 1014,8 hPa 0,0 l/m 0 min 0 min 0 W/m 9,7 km/h (2 Bft) 95,74 %
19.02.2019 06:02 6,9 C 6,7 C 5,6 C 91 % 1014,8 hPa 0,0 l/m 0 min 0 min 0 W/m 9,7 km/h (2 Bft) 97,87 %
19.02.2019 06:04 6,9 C 6,7 C 5,6 C 91 % 1014,9 hPa 0,0 l/m 0 min 0 min 0 W/m 9,7 km/h (2 Bft) 97,87 %
19.02.2019 06:08 6,9 C 6,1 C 5,6 C 91 % 1014,9 hPa 0,0 l/m 0 min 0 min 0 W/m 12,9 km/h (3 Bft) 97,87 %
19.02.2019 06:10 6,9 C 6,1 C 5,6 C 91 % 1015,0 hPa 0,0 l/m 0 min 0 min 0 W/m 6,4 km/h (2 Bft) 97,87 %
19.02.2019 06:12 6,9 C 6,1 C 5,6 C 91 % 1015,0 hPa 0,0 l/m 0 min 0 min 0 W/m 9,7 km/h (2 Bft) 100,00 %
19.02.2019 06:14 6,9 C 6,1 C 5,6 C 91 % 1015,1 hPa 0,0 l/m 0 min 0 min 0 W/m 9,7 km/h (2 Bft) 100,00 %
19.02.2019 06:16 6,9 C 6,1 C 5,6 C 91 % 1015,0 hPa 0,0 l/m 0 min 0 min 0 W/m 9,7 km/h (2 Bft) 97,87 %
19.02.2019 06:18 6,9 C 6,1 C 5,6 C 91 % 1014,9 hPa 0,0 l/m 0 min 0 min 0 W/m 12,9 km/h (3 Bft) 100,00 %
19.02.2019 06:20 6,9 C 6,1 C 5,6 C 91 % 1015,0 hPa 0,0 l/m 0 min 0 min 0 W/m 6,4 km/h (2 Bft) 100,00 %
19.02.2019 06:22 6,9 C 6,1 C 5,6 C 91 % 1015,0 hPa 0,0 l/m 0 min 0 min 0 W/m 12,9 km/h (3 Bft) 100,00 %
19.02.2019 06:24 6,9 C 6,1 C 5,6 C 91 % 1015,0 hPa 0,0 l/m 0 min 0 min 0 W/m 6,4 km/h (2 Bft) 100,00 %
19.02.2019 06:26 6,9 C 6,1 C 5,6 C 91 % 1015,0 hPa 0,0 l/m 0 min 0 min 0 W/m 9,7 km/h (2 Bft) 100,00 %
19.02.2019 06:28 6,9 C 6,1 C 5,6 C 91 % 1015,0 hPa 0,0 l/m 0 min 0 min 0 W/m 6,4 km/h (2 Bft) 100,00 %
19.02.2019 06:30 6,9 C 6,1 C 5,6 C 91 % 1015,1 hPa 0,0 l/m 0 min 0 min 0 W/m 9,7 km/h (2 Bft) 100,00 %
19.02.2019 06:32 6,9 C 6,1 C 5,6 C 91 % 1015,1 hPa 0,0 l/m 0 min 0 min 0 W/m 6,4 km/h (2 Bft) 100,00 %
19.02.2019 06:34 6,9 C 6,1 C 5,6 C 91 % 1015,1 hPa 0,0 l/m 0 min 0 min 0 W/m 9,7 km/h (2 Bft) 100,00 %
19.02.2019 06:36 6,9 C 6,1 C 5,6 C 91 % 1015,1 hPa 0,0 l/m 0 min 0 min 0 W/m 6,4 km/h (2 Bft) 100,00 %
19.02.2019 06:38 6,9 C 6,1 C 5,6 C 91 % 1015,1 hPa 0,0 l/m 0 min 0 min 0 W/m 12,9 km/h (3 Bft) 100,00 %
19.02.2019 06:40 6,9 C 6,1 C 5,6 C 91 % 1015,0 hPa 0,0 l/m 0 min 0 min 0 W/m 9,7 km/h (2 Bft) 97,87 %
19.02.2019 06:42 6,9 C 6,1 C 5,6 C 91 % 1015,0 hPa 0,0 l/m 0 min 0 min 0 W/m 9,7 km/h (2 Bft) 97,83 %
19.02.2019 06:44 6,9 C 6,1 C 5,6 C 91 % 1015,0 hPa 0,0 l/m 0 min 0 min 0 W/m 9,7 km/h (2 Bft) 100,00 %
19.02.2019 06:46 6,9 C 6,1 C 5,6 C 91 % 1015,0 hPa 0,0 l/m 0 min 0 min 0 W/m 12,9 km/h (3 Bft) 100,00 %
19.02.2019 06:48 6,9 C 6,1 C 5,6 C 91 % 1015,0 hPa 0,0 l/m 0 min 0 min 0 W/m 6,4 km/h (2 Bft) 100,00 %
19.02.2019 06:50 6,9 C 6,1 C 5,6 C 91 % 1015,1 hPa 0,0 l/m 0 min 0 min 0 W/m 12,9 km/h (3 Bft) 100,00 %
19.02.2019 06:52 6,8 C 6,1 C 5,6 C 91 % 1014,9 hPa 0,0 l/m 0 min 0 min 0 W/m 9,7 km/h (2 Bft) 100,00 %
19.02.2019 06:54 6,8 C 6,1 C 5,6 C 91 % 1015,0 hPa 0,0 l/m 0 min 0 min 0 W/m 12,9 km/h (3 Bft) 100,00 %
19.02.2019 06:56 6,8 C 6,1 C 5,6 C 91 % 1015,1 hPa 0,0 l/m 0 min 0 min 0 W/m 9,7 km/h (2 Bft) 100,00 %
19.02.2019 06:58 6,8 C 6,1 C 5,6 C 91 % 1015,1 hPa 0,0 l/m 0 min 0 min 0 W/m 6,4 km/h (2 Bft) 100,00 %
19.02.2019 07:00 6,8 C 6,1 C 5,6 C 91 % 1015,0 hPa 0,0 l/m 0 min 0 min 0 W/m 9,7 km/h (2 Bft) 100,00 %
19.02.2019 07:02 6,8 C 6,1 C 5,6 C 92 % 1015,1 hPa 0,0 l/m 0 min 0 min 0 W/m 9,7 km/h (2 Bft) 97,87 %
19.02.2019 07:04 6,8 C 6,1 C 5,6 C 92 % 1015,1 hPa 0,0 l/m 0 min 0 min 0 W/m 6,4 km/h (2 Bft) 100,00 %
19.02.2019 07:06 6,8 C 6,1 C 5,6 C 92 % 1015,1 hPa 0,0 l/m 0 min 0 min 0 W/m 9,7 km/h (2 Bft) 97,87 %
19.02.2019 07:08 6,8 C 6,1 C 5,6 C 92 % 1015,1 hPa 0,0 l/m 0 min 0 min 0 W/m 12,9 km/h (3 Bft) 97,87 %
19.02.2019 07:10 6,8 C 6,1 C 5,6 C 92 % 1015,0 hPa 0,0 l/m 0 min 0 min 0 W/m 12,9 km/h (3 Bft) 97,87 %
19.02.2019 07:12 6,8 C 6,1 C 5,6 C 92 % 1015,1 hPa 0,0 l/m 0 min 0 min 0 W/m 6,4 km/h (2 Bft) 97,87 %
19.02.2019 07:14 6,8 C 6,1 C 5,6 C 92 % 1015,2 hPa 0,0 l/m 0 min 0 min 0 W/m 12,9 km/h (3 Bft) 97,87 %
19.02.2019 07:15 6,8 C 6,1 C 5,6 C 92 % 1015,2 hPa 0,0 l/m 0 min 0 min 0 W/m 12,9 km/h (3 Bft) 100,00 %
19.02.2019 07:18 6,8 C 6,1 C 5,6 C 92 % 1015,2 hPa 0,0 l/m 0 min 0 min 0 W/m 12,9 km/h (3 Bft) 100,00 %
19.02.2019 07:20 6,7 C 6,1 C 5,6 C 92 % 1015,2 hPa 0,0 l/m 0 min 0 min 0 W/m 9,7 km/h (2 Bft) 95,74 %
19.02.2019 07:22 6,7 C 6,1 C 5,6 C 92 % 1015,3 hPa 0,0 l/m 0 min 0 min 0 W/m 9,7 km/h (2 Bft) 97,87 %
19.02.2019 07:24 6,7 C 6,1 C 5,6 C 92 % 1015,4 hPa 0,0 l/m 0 min 0 min 0 W/m 6,4 km/h (2 Bft) 95,74 %
19.02.2019 07:26 6,7 C 6,1 C 5,6 C 92 % 1015,4 hPa 0,0 l/m 0 min 0 min 0 W/m 6,4 km/h (2 Bft) 97,87 %
19.02.2019 07:28 6,7 C 6,1 C 5,6 C 92 % 1015,4 hPa 0,0 l/m 0 min 0 min 0 W/m 6,4 km/h (2 Bft) 97,83 %
19.02.2019 07:30 6,7 C 6,1 C 5,6 C 92 % 1015,4 hPa 0,0 l/m 0 min 0 min 0 W/m 9,7 km/h (2 Bft) 97,87 %
19.02.2019 07:32 6,7 C 6,1 C 5,6 C 92 % 1015,5 hPa 0,0 l/m 0 min 0 min 0 W/m 9,7 km/h (2 Bft) 97,87 %
19.02.2019 07:34 6,7 C 6,1 C 5,6 C 92 % 1015,5 hPa 0,0 l/m 0 min 0 min 0 W/m 6,4 km/h (2 Bft) 95,74 %
19.02.2019 07:36 6,7 C 6,1 C 5,6 C 92 % 1015,6 hPa 0,0 l/m 0 min 0 min 0 W/m 6,4 km/h (2 Bft) 96,55 %
19.02.2019 07:38 6,7 C 6,1 C 5,6 C 92 % 1015,6 hPa 0,0 l/m 0 min 0 min 0 W/m 6,4 km/h (2 Bft) 97,22 %
19.02.2019 07:40 6,7 C 6,1 C 5,6 C 92 % 1015,6 hPa 0,0 l/m 0 min 0 min 0 W/m 6,4 km/h (2 Bft) 95,65 %
19.02.2019 07:42 6,7 C 6,1 C 5,6 C 92 % 1015,7 hPa 0,0 l/m 0 min 0 min 0 W/m 9,7 km/h (2 Bft) 95,74 %
19.02.2019 07:44 6,7 C 6,1 C 5,6 C 92 % 1015,6 hPa 0,0 l/m 0 min 0 min 0 W/m 6,4 km/h (2 Bft) 95,74 %
19.02.2019 07:46 6,7 C 6,1 C 5,6 C 92 % 1015,7 hPa 0,0 l/m 0 min 0 min 0 W/m 6,4 km/h (2 Bft) 97,87 %
19.02.2019 07:48 6,7 C 6,1 C 5,6 C 92 % 1015,7 hPa 0,0 l/m 0 min 0 min 0 W/m 6,4 km/h (2 Bft) 97,87 %
19.02.2019 07:50 6,7 C 6,1 C 5,6 C 92 % 1015,7 hPa 0,0 l/m 0 min 0 min 0 W/m 12,9 km/h (3 Bft) 93,62 %
19.02.2019 07:52 6,7 C 6,1 C 5,6 C 92 % 1015,8 hPa 0,0 l/m 0 min 0 min 3 W/m 12,9 km/h (3 Bft) 95,65 %
19.02.2019 07:54 6,7 C 6,1 C 5,6 C 92 % 1015,8 hPa 0,0 l/m 0 min 0 min 7 W/m 9,7 km/h (2 Bft) 95,74 %
19.02.2019 07:56 6,7 C 6,1 C 5,6 C 92 % 1015,8 hPa 0,0 l/m 0 min 0 min 7 W/m 9,7 km/h (2 Bft) 97,87 %
19.02.2019 07:58 6,7 C 6,1 C 5,6 C 92 % 1015,8 hPa 0,0 l/m 0 min 0 min 7 W/m 12,9 km/h (3 Bft) 97,87 %
19.02.2019 08:00 6,7 C 6,1 C 5,6 C 92 % 1015,8 hPa 0,0 l/m 0 min 0 min 7 W/m 6,4 km/h (2 Bft) 95,74 %
19.02.2019 08:02 6,7 C 6,1 C 5,6 C 92 % 1015,8 hPa 0,0 l/m 0 min 0 min 7 W/m 9,7 km/h (2 Bft) 94,34 %
19.02.2019 08:04 6,7 C 6,1 C 5,6 C 92 % 1015,9 hPa 0,0 l/m 0 min 0 min 8 W/m 9,7 km/h (2 Bft) 95,74 %
19.02.2019 08:06 6,7 C 6,1 C 5,6 C 92 % 1015,9 hPa 0,0 l/m 0 min 0 min 9 W/m 12,9 km/h (3 Bft) 97,87 %
19.02.2019 08:08 6,7 C 6,1 C 5,6 C 92 % 1016,0 hPa 0,0 l/m 0 min 0 min 9 W/m 9,7 km/h (2 Bft) 97,87 %
19.02.2019 08:10 6,7 C 6,1 C 5,6 C 92 % 1016,0 hPa 0,0 l/m 0 min 0 min 9 W/m 6,4 km/h (2 Bft) 93,62 %
19.02.2019 08:12 6,7 C 6,1 C 5,6 C 92 % 1016,1 hPa 0,0 l/m 0 min 0 min 10 W/m 9,7 km/h (2 Bft) 97,87 %
19.02.2019 08:14 6,7 C 6,1 C 5,6 C 92 % 1016,1 hPa 0,0 l/m 0 min 0 min 12 W/m 9,7 km/h (2 Bft) 93,48 %
19.02.2019 08:16 6,7 C 6,1 C 5,6 C 92 % 1016,1 hPa 0,0 l/m 0 min 0 min 15 W/m 9,7 km/h (2 Bft) 97,87 %
19.02.2019 08:18 6,7 C 6,1 C 5,6 C 92 % 1016,2 hPa 0,0 l/m 0 min 0 min 17 W/m 9,7 km/h (2 Bft) 97,87 %
19.02.2019 08:20 6,7 C 6,1 C 5,6 C 92 % 1016,3 hPa 0,0 l/m 0 min 0 min 18 W/m 6,4 km/h (2 Bft) 97,87 %
19.02.2019 08:22 6,7 C 6,1 C 5,6 C 92 % 1016,3 hPa 0,0 l/m 0 min 0 min 19 W/m 12,9 km/h (3 Bft) 97,87 %
19.02.2019 08:24 6,7 C 6,1 C 5,6 C 92 % 1016,3 hPa 0,0 l/m 0 min 0 min 19 W/m 22,5 km/h (4 Bft) 97,83 %
19.02.2019 08:26 6,7 C 6,1 C 5,6 C 92 % 1016,4 hPa 0,0 l/m 0 min 0 min 19 W/m 9,7 km/h (2 Bft) 95,74 %
19.02.2019 08:28 6,7 C 6,1 C 5,6 C 92 % 1016,4 hPa 0,0 l/m 0 min 0 min 22 W/m 6,4 km/h (2 Bft) 95,74 %
19.02.2019 08:30 6,7 C 6,1 C 5,6 C 92 % 1016,4 hPa 0,0 l/m 0 min 0 min 25 W/m 19,3 km/h (3 Bft) 93,62 %
19.02.2019 08:32 6,7 C 6,1 C 5,6 C 92 % 1016,5 hPa 0,0 l/m 0 min 0 min 26 W/m 9,7 km/h (2 Bft) 95,74 %
19.02.2019 08:34 6,7 C 6,1 C 5,6 C 92 % 1016,4 hPa 0,0 l/m 0 min 0 min 28 W/m 16,1 km/h (3 Bft) 95,74 %
19.02.2019 08:36 6,7 C 6,1 C 5,6 C 92 % 1016,4 hPa 0,0 l/m 0 min 0 min 28 W/m 12,9 km/h (3 Bft) 95,65 %
19.02.2019 08:38 6,7 C 6,1 C 5,6 C 92 % 1016,4 hPa 0,0 l/m 0 min 0 min 28 W/m 16,1 km/h (3 Bft) 97,92 %
19.02.2019 08:40 6,7 C 6,1 C 5,6 C 92 % 1016,5 hPa 0,0 l/m 0 min 0 min 26 W/m 9,7 km/h (2 Bft) 97,87 %
19.02.2019 08:42 6,7 C 6,1 C 5,6 C 92 % 1016,5 hPa 0,0 l/m 0 min 0 min 26 W/m 6,4 km/h (2 Bft) 97,87 %
19.02.2019 08:44 6,7 C 6,1 C 5,6 C 92 % 1016,5 hPa 0,0 l/m 0 min 0 min 25 W/m 9,7 km/h (2 Bft) 97,87 %
19.02.2019 08:46 6,7 C 6,1 C 5,6 C 92 % 1016,6 hPa 0,0 l/m 0 min 0 min 23 W/m 9,7 km/h (2 Bft) 95,74 %
19.02.2019 08:48 6,7 C 6,1 C 5,6 C 92 % 1016,5 hPa 0,0 l/m 0 min 0 min 21 W/m 16,1 km/h (3 Bft) 95,65 %
19.02.2019 08:50 6,7 C 6,1 C 5,6 C 92 % 1016,6 hPa 0,0 l/m 0 min 0 min 21 W/m 9,7 km/h (2 Bft) 97,87 %
19.02.2019 08:52 6,7 C 6,1 C 5,6 C 92 % 1016,6 hPa 0,0 l/m 0 min 0 min 23 W/m 9,7 km/h (2 Bft) 95,74 %
19.02.2019 08:54 6,7 C 6,1 C 5,6 C 92 % 1016,7 hPa 0,0 l/m 0 min 0 min 23 W/m 9,7 km/h (2 Bft) 97,87 %
19.02.2019 08:56 6,6 C 6,1 C 5,6 C 92 % 1016,7 hPa 0,0 l/m 0 min 0 min 23 W/m 12,9 km/h (3 Bft) 97,87 %
19.02.2019 08:58 6,6 C 6,1 C 5,6 C 92 % 1016,6 hPa 0,0 l/m 0 min 0 min 23 W/m 6,4 km/h (2 Bft) 97,87 %
19.02.2019 09:00 6,6 C 6,1 C 5,0 C 92 % 1016,6 hPa 0,0 l/m 0 min 0 min 23 W/m 6,4 km/h (2 Bft) 97,83 %
19.02.2019 09:02 6,6 C 6,1 C 5,6 C 92 % 1016,7 hPa 0,0 l/m 0 min 0 min 23 W/m 12,9 km/h (3 Bft) 97,87 %
19.02.2019 09:04 6,6 C 6,1 C 5,0 C 92 % 1016,7 hPa 0,0 l/m 0 min 0 min 23 W/m 12,9 km/h (3 Bft) 97,87 %
19.02.2019 09:06 6,6 C 6,1 C 5,0 C 92 % 1016,7 hPa 0,0 l/m 0 min 0 min 23 W/m 12,9 km/h (3 Bft) 97,87 %
19.02.2019 09:08 6,6 C 6,1 C 5,0 C 92 % 1016,7 hPa 0,0 l/m 0 min 0 min 22 W/m 9,7 km/h (2 Bft) 97,87 %
19.02.2019 09:10 6,6 C 6,1 C 5,0 C 92 % 1016,7 hPa 0,0 l/m 0 min 0 min 23 W/m 19,3 km/h (3 Bft) 93,62 %
19.02.2019 09:12 6,6 C 6,1 C 5,0 C 92 % 1016,8 hPa 0,0 l/m 0 min 0 min 26 W/m 9,7 km/h (2 Bft) 97,83 %
19.02.2019 09:14 6,6 C 6,1 C 5,0 C 92 % 1016,7 hPa 0,0 l/m 0 min 0 min 32 W/m 6,4 km/h (2 Bft) 97,87 %
19.02.2019 09:16 6,6 C 6,1 C 5,6 C 92 % 1016,7 hPa 0,0 l/m 0 min 0 min 39 W/m 12,9 km/h (3 Bft) 100,00 %
19.02.2019 09:18 6,6 C 6,1 C 5,6 C 92 % 1016,7 hPa 0,0 l/m 0 min 0 min 41 W/m 19,3 km/h (3 Bft) 97,87 %
19.02.2019 09:20 6,6 C 6,7 C 5,6 C 92 % 1016,8 hPa 0,0 l/m 0 min 0 min 50 W/m 12,9 km/h (3 Bft) 97,87 %
19.02.2019 09:22 6,6 C 6,7 C 5,6 C 92 % 1016,8 hPa 0,0 l/m 0 min 0 min 55 W/m 16,1 km/h (3 Bft) 97,83 %
19.02.2019 09:24 6,6 C 6,7 C 5,6 C 92 % 1016,8 hPa 0,0 l/m 0 min 0 min 67 W/m 9,7 km/h (2 Bft) 97,87 %
19.02.2019 09:26 6,6 C 7,8 C 5,6 C 92 % 1016,9 hPa 0,0 l/m 2 min 0 min 169 W/m 6,4 km/h (2 Bft) 97,87 %
19.02.2019 09:28 6,6 C 9,4 C 5,6 C 92 % 1016,8 hPa 0,0 l/m 2 min 0 min 200 W/m 9,7 km/h (2 Bft) 97,87 %
19.02.2019 09:30 6,7 C 10,0 C 5,6 C 92 % 1016,8 hPa 0,0 l/m 2 min 0 min 207 W/m 6,4 km/h (2 Bft) 100,00 %
19.02.2019 09:32 6,7 C 10,6 C 6,1 C 92 % 1016,8 hPa 0,0 l/m 2 min 0 min 212 W/m 9,7 km/h (2 Bft) 100,00 %
19.02.2019 09:34 6,8 C 10,6 C 6,1 C 92 % 1016,8 hPa 0,0 l/m 2 min 0 min 223 W/m 12,9 km/h (3 Bft) 100,00 %
19.02.2019 09:36 6,9 C 10,0 C 6,1 C 93 % 1016,8 hPa 0,0 l/m 2 min 0 min 230 W/m 16,1 km/h (3 Bft) 100,00 %
19.02.2019 09:38 6,9 C 11,1 C 6,1 C 93 % 1016,7 hPa 0,0 l/m 2 min 0 min 235 W/m 12,9 km/h (3 Bft) 100,00 %
19.02.2019 09:40 7,0 C 11,1 C 6,7 C 93 % 1016,8 hPa 0,0 l/m 2 min 0 min 240 W/m 12,9 km/h (3 Bft) 100,00 %
19.02.2019 09:42 7,1 C 11,1 C 7,8 C 93 % 1016,8 hPa 0,0 l/m 2 min 0 min 245 W/m 9,7 km/h (2 Bft) 95,74 %
19.02.2019 09:44 7,2 C 11,1 C 8,9 C 93 % 1016,7 hPa 0,0 l/m 2 min 0 min 251 W/m 9,7 km/h (2 Bft) 100,00 %
19.02.2019 09:46 7,3 C 11,1 C 8,9 C 92 % 1016,8 hPa 0,0 l/m 2 min 0 min 254 W/m 12,9 km/h (3 Bft) 97,83 %
19.02.2019 09:48 7,3 C 11,1 C 8,9 C 92 % 1016,8 hPa 0,0 l/m 2 min 0 min 258 W/m 16,1 km/h (3 Bft) 97,87 %
19.02.2019 09:50 7,4 C 11,1 C 8,9 C 92 % 1016,8 hPa 0,0 l/m 2 min 0 min 264 W/m 9,7 km/h (2 Bft) 97,87 %
19.02.2019 09:52 7,5 C 11,1 C 9,4 C 92 % 1016,8 hPa 0,0 l/m 2 min 0 min 271 W/m 19,3 km/h (3 Bft) 95,74 %
19.02.2019 09:54 7,6 C 11,7 C 9,4 C 92 % 1016,9 hPa 0,0 l/m 2 min 0 min 277 W/m 16,1 km/h (3 Bft) 97,87 %
19.02.2019 09:56 7,7 C 11,7 C 10,0 C 91 % 1016,8 hPa 0,0 l/m 2 min 0 min 280 W/m 12,9 km/h (3 Bft) 97,87 %
19.02.2019 09:58 7,8 C 11,7 C 10,0 C 91 % 1016,7 hPa 0,0 l/m 2 min 0 min 282 W/m 16,1 km/h (3 Bft) 97,83 %
19.02.2019 10:00 7,8 C 11,7 C 10,0 C 91 % 1016,8 hPa 0,0 l/m 2 min 0 min 294 W/m 19,3 km/h (3 Bft) 97,87 %
19.02.2019 10:02 7,9 C 12,2 C 10,0 C 90 % 1016,8 hPa 0,0 l/m 2 min 0 min 293 W/m 22,5 km/h (4 Bft) 97,87 %
19.02.2019 10:04 8,0 C 11,7 C 10,0 C 90 % 1016,8 hPa 0,0 l/m 2 min 0 min 301 W/m 16,1 km/h (3 Bft) 97,87 %
19.02.2019 10:06 8,1 C 12,2 C 10,0 C 89 % 1016,9 hPa 0,0 l/m 2 min 0 min 306 W/m 19,3 km/h (3 Bft) 97,87 %
19.02.2019 10:08 8,2 C 12,2 C 9,4 C 89 % 1016,9 hPa 0,0 l/m 2 min 0 min 313 W/m 19,3 km/h (3 Bft) 97,83 %
19.02.2019 10:10 8,2 C 12,8 C 8,3 C 89 % 1016,9 hPa 0,0 l/m 2 min 0 min 316 W/m 12,9 km/h (3 Bft) 91,84 %
19.02.2019 10:12 8,3 C 12,8 C 8,3 C 88 % 1016,9 hPa 0,0 l/m 2 min 0 min 317 W/m 12,9 km/h (3 Bft) 97,87 %
19.02.2019 10:14 8,4 C 13,3 C 8,3 C 88 % 1016,9 hPa 0,0 l/m 2 min 0 min 334 W/m 9,7 km/h (2 Bft) 97,87 %
19.02.2019 10:16 8,4 C 13,3 C 8,3 C 88 % 1016,8 hPa 0,0 l/m 2 min 0 min 325 W/m 9,7 km/h (2 Bft) 97,87 %
19.02.2019 10:18 8,6 C 13,3 C 8,3 C 88 % 1016,9 hPa 0,0 l/m 2 min 0 min 341 W/m 9,7 km/h (2 Bft) 95,74 %
19.02.2019 10:20 8,6 C 12,8 C 8,3 C 87 % 1016,8 hPa 0,0 l/m 2 min 0 min 326 W/m 12,9 km/h (3 Bft) 95,65 %
19.02.2019 10:22 8,7 C 12,8 C 8,3 C 87 % 1017,0 hPa 0,0 l/m 2 min 0 min 344 W/m 22,5 km/h (4 Bft) 97,87 %
19.02.2019 10:24 8,7 C 12,8 C 7,8 C 86 % 1016,9 hPa 0,0 l/m 2 min 0 min 355 W/m 16,1 km/h (3 Bft) 93,62 %
19.02.2019 10:26 8,8 C 12,8 C 8,3 C 85 % 1017,0 hPa 0,0 l/m 2 min 0 min 325 W/m 12,9 km/h (3 Bft) 97,87 %
19.02.2019 10:28 8,8 C 12,2 C 7,8 C 85 % 1016,9 hPa 0,0 l/m 2 min 0 min 349 W/m 19,3 km/h (3 Bft) 100,00 %
19.02.2019 10:30 8,8 C 12,2 C 7,8 C 84 % 1016,9 hPa 0,0 l/m 2 min 0 min 358 W/m 32,2 km/h (5 Bft) 97,87 %
19.02.2019 10:32 8,9 C 12,8 C 8,3 C 83 % 1016,9 hPa 0,0 l/m 2 min 0 min 365 W/m 16,1 km/h (3 Bft) 97,83 %
19.02.2019 10:34 8,9 C 13,3 C 8,3 C 83 % 1016,9 hPa 0,0 l/m 2 min 0 min 369 W/m 22,5 km/h (4 Bft) 97,87 %
19.02.2019 10:36 9,0 C 12,8 C 8,3 C 83 % 1016,9 hPa 0,0 l/m 2 min 0 min 382 W/m 16,1 km/h (3 Bft) 100,00 %
19.02.2019 10:38 9,1 C 13,3 C 8,3 C 83 % 1016,9 hPa 0,0 l/m 2 min 0 min 352 W/m 12,9 km/h (3 Bft) 100,00 %
19.02.2019 10:40 9,1 C 13,3 C 8,3 C 83 % 1016,9 hPa 0,0 l/m 2 min 0 min 402 W/m 16,1 km/h (3 Bft) 100,00 %
19.02.2019 10:42 9,2 C 12,8 C 8,3 C 83 % 1017,0 hPa 0,0 l/m 2 min 0 min 378 W/m 16,1 km/h (3 Bft) 100,00 %
19.02.2019 10:44 9,2 C 12,8 C 8,3 C 82 % 1017,0 hPa 0,0 l/m 2 min 0 min 287 W/m 22,5 km/h (4 Bft) 100,00 %
19.02.2019 10:46 9,2 C 11,1 C 8,3 C 82 % 1017,0 hPa 0,0 l/m 2 min 0 min 351 W/m 19,3 km/h (3 Bft) 100,00 %
19.02.2019 10:48 9,2 C 12,2 C 8,3 C 81 % 1017,0 hPa 0,0 l/m 0 min 0 min 188 W/m 12,9 km/h (3 Bft) 100,00 %
19.02.2019 10:50 9,2 C 12,2 C 8,3 C 81 % 1017,0 hPa 0,0 l/m 2 min 0 min 406 W/m 19,3 km/h (3 Bft) 97,87 %
19.02.2019 10:52 9,2 C 12,8 C 8,3 C 81 % 1017,0 hPa 0,0 l/m 2 min 0 min 409 W/m 16,1 km/h (3 Bft) 100,00 %
19.02.2019 10:54 9,2 C 13,9 C 8,3 C 81 % 1017,0 hPa 0,0 l/m 2 min 0 min 410 W/m 9,7 km/h (2 Bft) 91,30 %
19.02.2019 10:56 9,3 C 13,3 C 8,9 C 81 % 1017,0 hPa 0,0 l/m 2 min 0 min 418 W/m 16,1 km/h (3 Bft) 97,87 %
19.02.2019 10:58 9,3 C 13,3 C 8,9 C 80 % 1017,0 hPa 0,0 l/m 2 min 0 min 424 W/m 22,5 km/h (4 Bft) 97,87 %
19.02.2019 11:00 9,4 C 13,3 C 8,9 C 80 % 1017,0 hPa 0,0 l/m 2 min 0 min 448 W/m 16,1 km/h (3 Bft) 97,87 %
19.02.2019 11:02 9,4 C 13,3 C 8,9 C 79 % 1017,2 hPa 0,0 l/m 2 min 0 min 455 W/m 22,5 km/h (4 Bft) 97,87 %
19.02.2019 11:04 9,4 C 12,8 C 8,9 C 78 % 1017,1 hPa 0,0 l/m 2 min 0 min 424 W/m 19,3 km/h (3 Bft) 95,74 %
19.02.2019 11:06 9,4 C 13,3 C 8,9 C 78 % 1017,0 hPa 0,0 l/m 2 min 0 min 421 W/m 12,9 km/h (3 Bft) 100,00 %
19.02.2019 11:08 9,5 C 14,4 C 8,9 C 79 % 1017,1 hPa 0,0 l/m 2 min 0 min 438 W/m 12,9 km/h (3 Bft) 100,00 %
19.02.2019 11:10 9,6 C 15,0 C 8,9 C 79 % 1017,1 hPa 0,0 l/m 2 min 0 min 432 W/m 12,9 km/h (3 Bft) 100,00 %
19.02.2019 11:12 9,7 C 14,4 C 8,9 C 79 % 1017,1 hPa 0,0 l/m 2 min 0 min 449 W/m 19,3 km/h (3 Bft) 100,00 %
19.02.2019 11:14 9,7 C 13,3 C 8,9 C 78 % 1017,1 hPa 0,0 l/m 2 min 0 min 472 W/m 12,9 km/h (3 Bft) 91,49 %
19.02.2019 11:16 9,8 C 13,9 C 9,4 C 78 % 1017,1 hPa 0,0 l/m 2 min 0 min 490 W/m 12,9 km/h (3 Bft) 82,93 %
19.02.2019 11:18 9,8 C 13,9 C 9,4 C 78 % 1017,1 hPa 0,0 l/m 2 min 0 min 496 W/m 25,7 km/h (4 Bft) 94,34 %
19.02.2019 11:20 9,9 C 13,9 C 9,4 C 77 % 1017,1 hPa 0,0 l/m 2 min 0 min 517 W/m 16,1 km/h (3 Bft) 80,43 %
19.02.2019 11:22 9,9 C 13,9 C 9,4 C 77 % 1017,1 hPa 0,0 l/m 2 min 0 min 469 W/m 12,9 km/h (3 Bft) 78,72 %
19.02.2019 11:24 10,0 C 14,4 C 9,4 C 77 % 1017,0 hPa 0,0 l/m 2 min 0 min 418 W/m 12,9 km/h (3 Bft) 87,23 %
19.02.2019 11:26 10,0 C 12,8 C 9,4 C 76 % 1017,1 hPa 0,0 l/m 2 min 0 min 474 W/m 16,1 km/h (3 Bft) 89,36 %
19.02.2019 11:28 10,0 C 12,8 C 9,4 C 76 % 1017,1 hPa 0,0 l/m 2 min 0 min 478 W/m 16,1 km/h (3 Bft) 85,11 %
19.02.2019 11:30 9,9 C 12,8 C 8,9 C 75 % 1017,1 hPa 0,0 l/m 2 min 0 min 493 W/m 22,5 km/h (4 Bft) 76,60 %
19.02.2019 11:32 9,9 C 11,7 C 8,9 C 76 % 1017,1 hPa 0,0 l/m 2 min 0 min 344 W/m 19,3 km/h (3 Bft) 82,61 %
19.02.2019 11:34 9,9 C 13,3 C 8,9 C 76 % 1017,1 hPa 0,0 l/m 2 min 0 min 377 W/m 19,3 km/h (3 Bft) 80,85 %
19.02.2019 11:36 9,9 C 14,4 C 9,4 C 77 % 1017,1 hPa 0,0 l/m 2 min 0 min 489 W/m 9,7 km/h (2 Bft) 82,98 %
19.02.2019 11:38 9,9 C 15,6 C 10,0 C 77 % 1017,1 hPa 0,0 l/m 2 min 0 min 540 W/m 19,3 km/h (3 Bft) 81,63 %
19.02.2019 11:40 10,1 C 15,0 C 10,0 C 77 % 1017,1 hPa 0,0 l/m 2 min 0 min 550 W/m 29,0 km/h (5 Bft) 82,00 %
19.02.2019 11:42 10,1 C 12,2 C 9,4 C 76 % 1017,2 hPa 0,0 l/m 2 min 0 min 550 W/m 25,7 km/h (4 Bft) 76,09 %
19.02.2019 11:44 10,0 C 11,1 C 8,9 C 75 % 1017,2 hPa 0,0 l/m 0 min 0 min 214 W/m 25,7 km/h (4 Bft) 78,72 %
19.02.2019 11:46 9,9 C 11,1 C 8,9 C 75 % 1017,2 hPa 0,0 l/m 0 min 0 min 145 W/m 16,1 km/h (3 Bft) 74,47 %
19.02.2019 11:48 9,9 C 11,1 C 8,9 C 75 % 1017,2 hPa 0,0 l/m 0 min 0 min 149 W/m 22,5 km/h (4 Bft) 89,36 %
19.02.2019 11:50 9,9 C 12,8 C 9,4 C 76 % 1017,2 hPa 0,0 l/m 2 min 0 min 286 W/m 16,1 km/h (3 Bft) 87,23 %
19.02.2019 11:52 9,9 C 14,4 C 10,0 C 76 % 1017,2 hPa 0,0 l/m 2 min 0 min 630 W/m 12,9 km/h (3 Bft) 80,85 %
19.02.2019 11:54 10,1 C 13,9 C 10,0 C 76 % 1017,3 hPa 0,0 l/m 2 min 0 min 601 W/m 16,1 km/h (3 Bft) 73,91 %
19.02.2019 11:56 10,1 C 15,0 C 10,0 C 76 % 1017,3 hPa 0,0 l/m 2 min 0 min 606 W/m 16,1 km/h (3 Bft) 74,47 %
19.02.2019 11:58 10,2 C 13,9 C 10,0 C 76 % 1017,2 hPa 0,0 l/m 2 min 0 min 609 W/m 16,1 km/h (3 Bft) 80,85 %
19.02.2019 12:00 10,2 C 12,2 C 9,4 C 75 % 1017,3 hPa 0,0 l/m 2 min 0 min 438 W/m 19,3 km/h (3 Bft) 89,36 %
19.02.2019 12:02 10,1 C 11,1 C 8,9 C 75 % 1017,3 hPa 0,0 l/m 0 min 0 min 202 W/m 25,7 km/h (4 Bft) 78,72 %
19.02.2019 12:04 10,1 C 10,0 C 8,9 C 75 % 1017,4 hPa 0,0 l/m 0 min 0 min 121 W/m 16,1 km/h (3 Bft) 85,11 %
19.02.2019 12:08 9,9 C 12,2 C 9,4 C 75 % 1017,3 hPa 0,0 l/m 0 min 0 min 153 W/m 16,1 km/h (3 Bft) 83,87 %
19.02.2019 12:10 9,9 C 12,2 C 9,4 C 76 % 1017,4 hPa 0,0 l/m 0 min 0 min 174 W/m 12,9 km/h (3 Bft) 89,36 %
19.02.2019 12:12 9,9 C 11,7 C 10,0 C 76 % 1017,4 hPa 0,0 l/m 0 min 0 min 186 W/m 19,3 km/h (3 Bft) 93,62 %
19.02.2019 12:14 9,9 C 10,6 C 9,4 C 75 % 1017,4 hPa 0,0 l/m 0 min 0 min 179 W/m 16,1 km/h (3 Bft) 93,62 %
19.02.2019 12:16 9,9 C 12,2 C 10,0 C 75 % 1017,4 hPa 0,0 l/m 2 min 0 min 314 W/m 16,1 km/h (3 Bft) 95,65 %
19.02.2019 12:18 10,0 C 13,9 C 10,0 C 76 % 1017,4 hPa 0,0 l/m 2 min 0 min 470 W/m 22,5 km/h (4 Bft) 89,36 %
19.02.2019 12:20 10,1 C 15,0 C 10,6 C 76 % 1017,4 hPa 0,0 l/m 2 min 0 min 636 W/m 16,1 km/h (3 Bft) 95,74 %
19.02.2019 12:22 10,3 C 15,6 C 11,1 C 75 % 1017,4 hPa 0,0 l/m 2 min 0 min 624 W/m 9,7 km/h (2 Bft) 95,74 %
19.02.2019 12:24 10,3 C 12,8 C 10,6 C 75 % 1017,4 hPa 0,0 l/m 2 min 0 min 427 W/m 19,3 km/h (3 Bft) 95,74 %
19.02.2019 12:26 10,4 C 12,2 C 10,0 C 74 % 1017,4 hPa 0,0 l/m 0 min 0 min 224 W/m 22,5 km/h (4 Bft) 97,87 %
19.02.2019 12:28 10,3 C 13,3 C 10,0 C 73 % 1017,4 hPa 0,0 l/m 2 min 0 min 464 W/m 19,3 km/h (3 Bft) 95,65 %
19.02.2019 12:30 10,3 C 11,7 C 10,0 C 73 % 1017,3 hPa 0,0 l/m 2 min 0 min 342 W/m 19,3 km/h (3 Bft) 95,74 %
19.02.2019 12:32 10,3 C 12,2 C 10,0 C 74 % 1017,3 hPa 0,0 l/m 0 min 0 min 203 W/m 29,0 km/h (5 Bft) 93,62 %
19.02.2019 12:34 10,3 C 12,2 C 10,0 C 73 % 1017,2 hPa 0,0 l/m 2 min 0 min 490 W/m 19,3 km/h (3 Bft) 95,74 %
19.02.2019 12:36 10,3 C 13,3 C 11,1 C 73 % 1017,2 hPa 0,0 l/m 2 min 0 min 553 W/m 16,1 km/h (3 Bft) 95,74 %
19.02.2019 12:38 10,4 C 12,8 C 11,7 C 73 % 1017,3 hPa 0,0 l/m 2 min 0 min 260 W/m 25,7 km/h (4 Bft) 95,74 %
19.02.2019 12:40 10,4 C 12,8 C 12,2 C 73 % 1017,3 hPa 0,0 l/m 2 min 0 min 554 W/m 29,0 km/h (5 Bft) 97,83 %
19.02.2019 12:42 10,5 C 13,3 C 12,8 C 73 % 1017,2 hPa 0,0 l/m 2 min 0 min 501 W/m 16,1 km/h (3 Bft) 95,74 %
19.02.2019 12:44 10,6 C 14,4 C 13,9 C 73 % 1017,3 hPa 0,0 l/m 2 min 0 min 357 W/m 22,5 km/h (4 Bft) 97,87 %
19.02.2019 12:46 10,7 C 13,9 C 13,3 C 73 % 1017,3 hPa 0,0 l/m 2 min 0 min 357 W/m 16,1 km/h (3 Bft) 91,49 %
19.02.2019 12:48 10,8 C 12,8 C 12,2 C 73 % 1017,2 hPa 0,0 l/m 2 min 0 min 457 W/m 25,7 km/h (4 Bft) 97,87 %
19.02.2019 12:50 10,8 C 11,7 C 11,1 C 72 % 1017,2 hPa 0,0 l/m 2 min 0 min 260 W/m 22,5 km/h (4 Bft) 97,87 %
19.02.2019 12:52 10,8 C 11,7 C 11,1 C 72 % 1017,2 hPa 0,0 l/m 2 min 0 min 248 W/m 16,1 km/h (3 Bft) 97,83 %
19.02.2019 12:54 10,8 C 11,1 C 10,6 C 72 % 1017,2 hPa 0,0 l/m 0 min 0 min 215 W/m 22,5 km/h (4 Bft) 95,74 %
19.02.2019 12:56 10,7 C 12,2 C 12,2 C 72 % 1017,2 hPa 0,0 l/m 2 min 0 min 246 W/m 19,3 km/h (3 Bft) 95,74 %
19.02.2019 12:58 10,7 C 12,2 C 11,7 C 72 % 1017,2 hPa 0,0 l/m 2 min 0 min 251 W/m 22,5 km/h (4 Bft) 97,87 %
19.02.2019 13:00 10,7 C 11,7 C 11,1 C 72 % 1017,1 hPa 0,0 l/m 2 min 0 min 247 W/m 16,1 km/h (3 Bft) 97,87 %
19.02.2019 13:02 10,7 C 11,7 C 11,1 C 72 % 1017,2 hPa 0,0 l/m 2 min 0 min 274 W/m 19,3 km/h (3 Bft) 97,87 %
19.02.2019 13:04 10,7 C 12,2 C 11,7 C 72 % 1017,1 hPa 0,0 l/m 2 min 0 min 329 W/m 22,5 km/h (4 Bft) 97,83 %
19.02.2019 13:06 10,7 C 11,7 C 11,1 C 72 % 1017,2 hPa 0,0 l/m 2 min 0 min 324 W/m 19,3 km/h (3 Bft) 97,87 %
19.02.2019 13:08 10,7 C 11,7 C 11,1 C 72 % 1017,2 hPa 0,0 l/m 2 min 0 min 264 W/m 12,9 km/h (3 Bft) 97,87 %
19.02.2019 13:10 10,7 C 11,7 C 11,1 C 72 % 1017,2 hPa 0,0 l/m 2 min 0 min 283 W/m 12,9 km/h (3 Bft) 97,92 %
19.02.2019 13:12 10,7 C 11,7 C 11,1 C 72 % 1017,2 hPa 0,0 l/m 2 min 0 min 287 W/m 19,3 km/h (3 Bft) 95,74 %
19.02.2019 13:14 10,7 C 11,7 C 11,1 C 71 % 1017,2 hPa 0,0 l/m 0 min 0 min 219 W/m 16,1 km/h (3 Bft) 97,83 %
19.02.2019 13:16 10,7 C 11,7 C 10,6 C 72 % 1017,2 hPa 0,0 l/m 0 min 0 min 224 W/m 12,9 km/h (3 Bft) 93,62 %
19.02.2019 13:18 10,7 C 11,1 C 10,6 C 72 % 1017,2 hPa 0,0 l/m 0 min 0 min 191 W/m 16,1 km/h (3 Bft) 97,87 %
19.02.2019 13:20 10,7 C 11,1 C 10,6 C 71 % 1017,2 hPa 0,0 l/m 0 min 0 min 185 W/m 9,7 km/h (2 Bft) 97,87 %
19.02.2019 13:22 10,7 C 11,1 C 10,6 C 71 % 1017,2 hPa 0,0 l/m 0 min 0 min 188 W/m 16,1 km/h (3 Bft) 97,87 %
19.02.2019 13:24 10,7 C 11,1 C 10,6 C 71 % 1017,2 hPa 0,0 l/m 0 min 0 min 208 W/m 9,7 km/h (2 Bft) 97,87 %
19.02.2019 13:26 10,7 C 11,1 C 10,6 C 72 % 1017,2 hPa 0,0 l/m 0 min 0 min 191 W/m 9,7 km/h (2 Bft) 97,83 %
19.02.2019 13:28 10,7 C 11,1 C 10,6 C 72 % 1017,2 hPa 0,0 l/m 0 min 0 min 179 W/m 12,9 km/h (3 Bft) 97,87 %
19.02.2019 13:30 10,7 C 11,7 C 10,6 C 72 % 1017,2 hPa 0,0 l/m 0 min 0 min 179 W/m 16,1 km/h (3 Bft) 97,87 %
19.02.2019 13:32 10,7 C 11,1 C 10,0 C 71 % 1017,2 hPa 0,0 l/m 0 min 0 min 161 W/m 32,2 km/h (5 Bft) 97,87 %
19.02.2019 13:34 10,7 C 10,6 C 10,0 C 71 % 1017,2 hPa 0,0 l/m 0 min 0 min 134 W/m 19,3 km/h (3 Bft) 97,87 %
19.02.2019 13:36 10,6 C 10,6 C 10,0 C 71 % 1017,2 hPa 0,0 l/m 0 min 0 min 131 W/m 12,9 km/h (3 Bft) 97,87 %
19.02.2019 13:38 10,6 C 10,6 C 10,0 C 72 % 1017,1 hPa 0,0 l/m 0 min 0 min 157 W/m 19,3 km/h (3 Bft) 97,14 %
19.02.2019 13:40 10,6 C 10,6 C 10,0 C 72 % 1017,1 hPa 0,0 l/m 0 min 0 min 156 W/m 16,1 km/h (3 Bft) 97,87 %
19.02.2019 13:42 10,6 C 12,2 C 10,0 C 72 % 1017,1 hPa 0,0 l/m 2 min 0 min 239 W/m 12,9 km/h (3 Bft) 97,83 %
19.02.2019 13:44 10,6 C 12,2 C 10,6 C 72 % 1017,2 hPa 0,0 l/m 2 min 0 min 536 W/m 16,1 km/h (3 Bft) 100,00 %
19.02.2019 13:46 10,6 C 11,7 C 10,6 C 73 % 1017,1 hPa 0,0 l/m 2 min 0 min 270 W/m 22,5 km/h (4 Bft) 100,00 %
19.02.2019 13:48 10,6 C 11,7 C 10,6 C 72 % 1017,1 hPa 0,0 l/m 0 min 0 min 207 W/m 25,7 km/h (4 Bft) 100,00 %
19.02.2019 13:50 10,6 C 13,3 C 10,6 C 72 % 1017,1 hPa 0,0 l/m 0 min 0 min 207 W/m 22,5 km/h (4 Bft) 100,00 %
19.02.2019 13:52 10,7 C 11,7 C 10,6 C 72 % 1017,1 hPa 0,0 l/m 0 min 0 min 180 W/m 16,1 km/h (3 Bft) 100,00 %
19.02.2019 13:54 10,7 C 11,7 C 10,0 C 72 % 1017,1 hPa 0,0 l/m 0 min 0 min 155 W/m 12,9 km/h (3 Bft) 100,00 %
19.02.2019 13:56 10,7 C 11,1 C 10,0 C 72 % 1017,1 hPa 0,0 l/m 0 min 0 min 148 W/m 12,9 km/h (3 Bft) 100,00 %
19.02.2019 13:58 10,7 C 11,1 C 10,0 C 71 % 1017,1 hPa 0,0 l/m 0 min 0 min 144 W/m 16,1 km/h (3 Bft) 100,00 %
19.02.2019 14:00 10,7 C 10,6 C 10,0 C 71 % 1017,0 hPa 0,0 l/m 0 min 0 min 142 W/m 25,7 km/h (4 Bft) 100,00 %
19.02.2019 14:02 10,6 C 10,6 C 10,0 C 71 % 1017,1 hPa 0,0 l/m 0 min 0 min 172 W/m 19,3 km/h (3 Bft) 100,00 %
19.02.2019 14:04 10,6 C 10,6 C 10,0 C 71 % 1017,1 hPa 0,0 l/m 0 min 0 min 162 W/m 12,9 km/h (3 Bft) 100,00 %
19.02.2019 14:06 10,6 C 12,2 C 10,0 C 71 % 1017,0 hPa 0,0 l/m 2 min 0 min 251 W/m 19,3 km/h (3 Bft) 97,87 %
19.02.2019 14:08 10,6 C 11,7 C 10,0 C 71 % 1017,1 hPa 0,0 l/m 2 min 0 min 397 W/m 16,1 km/h (3 Bft) 95,74 %
19.02.2019 14:10 10,6 C 11,7 C 10,0 C 71 % 1017,1 hPa 0,0 l/m 0 min 0 min 153 W/m 9,7 km/h (2 Bft) 97,87 %
19.02.2019 14:12 10,6 C 12,2 C 10,6 C 71 % 1017,1 hPa 0,0 l/m 0 min 0 min 170 W/m 9,7 km/h (2 Bft) 93,62 %
19.02.2019 14:14 10,7 C 12,2 C 10,6 C 72 % 1017,1 hPa 0,0 l/m 2 min 0 min 230 W/m 19,3 km/h (3 Bft) 95,92 %
19.02.2019 14:16 10,7 C 11,7 C 10,6 C 71 % 1017,0 hPa 0,0 l/m 0 min 0 min 152 W/m 32,2 km/h (5 Bft) 95,83 %
19.02.2019 14:18 10,7 C 11,7 C 10,0 C 71 % 1017,1 hPa 0,0 l/m 0 min 0 min 144 W/m 16,1 km/h (3 Bft) 97,87 %
19.02.2019 14:20 10,8 C 13,9 C 10,6 C 71 % 1017,1 hPa 0,0 l/m 2 min 0 min 310 W/m 19,3 km/h (3 Bft) 97,14 %
19.02.2019 14:22 10,8 C 16,1 C 11,1 C 72 % 1017,0 hPa 0,0 l/m 2 min 0 min 510 W/m 19,3 km/h (3 Bft) 98,18 %
19.02.2019 14:24 10,9 C 14,4 C 11,1 C 72 % 1017,2 hPa 0,0 l/m 2 min 0 min 418 W/m 19,3 km/h (3 Bft) 95,74 %
19.02.2019 14:26 11,1 C 12,8 C 10,6 C 71 % 1017,2 hPa 0,0 l/m 0 min 0 min 118 W/m 12,9 km/h (3 Bft) 95,92 %
19.02.2019 14:28 11,1 C 11,7 C 10,0 C 71 % 1017,2 hPa 0,0 l/m 0 min 0 min 96 W/m 19,3 km/h (3 Bft) 95,74 %
19.02.2019 14:30 11,0 C 11,1 C 10,0 C 70 % 1017,2 hPa 0,0 l/m 0 min 0 min 101 W/m 12,9 km/h (3 Bft) 93,75 %
19.02.2019 14:32 11,0 C 11,1 C 10,0 C 70 % 1017,2 hPa 0,0 l/m 0 min 0 min 124 W/m 19,3 km/h (3 Bft) 91,49 %
19.02.2019 14:34 11,0 C 10,6 C 10,0 C 70 % 1017,2 hPa 0,0 l/m 0 min 0 min 126 W/m 16,1 km/h (3 Bft) 95,74 %
19.02.2019 14:36 10,9 C 10,6 C 10,0 C 70 % 1017,2 hPa 0,0 l/m 0 min 0 min 131 W/m 19,3 km/h (3 Bft) 91,30 %
19.02.2019 14:38 10,9 C 10,6 C 10,0 C 70 % 1017,2 hPa 0,0 l/m 0 min 0 min 117 W/m 9,7 km/h (2 Bft) 85,11 %
19.02.2019 14:40 10,9 C 11,7 C 10,0 C 70 % 1017,2 hPa 0,0 l/m 0 min 0 min 161 W/m 9,7 km/h (2 Bft) 95,74 %
19.02.2019 14:42 10,8 C 11,1 C 10,0 C 70 % 1017,1 hPa 0,0 l/m 2 min 0 min 213 W/m 19,3 km/h (3 Bft) 95,74 %
19.02.2019 14:44 10,8 C 11,1 C 10,0 C 70 % 1017,2 hPa 0,0 l/m 0 min 0 min 133 W/m 19,3 km/h (3 Bft) 88,57 %
19.02.2019 14:46 10,8 C 11,1 C 10,0 C 70 % 1017,2 hPa 0,0 l/m 0 min 0 min 122 W/m 16,1 km/h (3 Bft) 93,62 %
19.02.2019 14:48 10,8 C 11,7 C 10,0 C 69 % 1017,2 hPa 0,0 l/m 0 min 0 min 131 W/m 9,7 km/h (2 Bft) 94,34 %
19.02.2019 14:50 10,8 C 13,3 C 10,6 C 70 % 1017,2 hPa 0,0 l/m 2 min 0 min 436 W/m 19,3 km/h (3 Bft) 95,65 %
19.02.2019 14:52 10,8 C 12,8 C 10,6 C 70 % 1017,3 hPa 0,0 l/m 2 min 0 min 298 W/m 12,9 km/h (3 Bft) 93,62 %
19.02.2019 14:54 10,9 C 12,2 C 10,6 C 70 % 1017,2 hPa 0,0 l/m 0 min 0 min 135 W/m 16,1 km/h (3 Bft) 96,00 %
19.02.2019 14:56 10,9 C 12,2 C 10,6 C 70 % 1017,1 hPa 0,0 l/m 0 min 0 min 136 W/m 16,1 km/h (3 Bft) 95,92 %
19.02.2019 14:58 10,9 C 13,9 C 10,6 C 71 % 1017,2 hPa 0,0 l/m 2 min 0 min 328 W/m 16,1 km/h (3 Bft) 97,87 %
19.02.2019 15:00 11,0 C 13,3 C 10,6 C 70 % 1017,1 hPa 0,0 l/m 2 min 0 min 276 W/m 12,9 km/h (3 Bft) 89,13 %
19.02.2019 15:02 11,1 C 16,1 C 11,1 C 71 % 1017,2 hPa 0,0 l/m 2 min 0 min 393 W/m 12,9 km/h (3 Bft) 97,87 %
19.02.2019 15:04 11,2 C 16,7 C 11,1 C 71 % 1017,2 hPa 0,0 l/m 2 min 0 min 426 W/m 12,9 km/h (3 Bft) 91,49 %
19.02.2019 15:06 11,4 C 16,7 C 11,7 C 70 % 1017,2 hPa 0,0 l/m 2 min 0 min 437 W/m 19,3 km/h (3 Bft) 100,00 %
19.02.2019 15:08 11,5 C 17,2 C 11,7 C 70 % 1017,2 hPa 0,0 l/m 2 min 0 min 452 W/m 16,1 km/h (3 Bft) 100,00 %
19.02.2019 15:10 11,7 C 17,8 C 11,7 C 70 % 1017,2 hPa 0,0 l/m 2 min 0 min 465 W/m 19,3 km/h (3 Bft) 95,74 %
19.02.2019 15:12 11,8 C 17,8 C 11,7 C 70 % 1017,2 hPa 0,0 l/m 2 min 0 min 442 W/m 12,9 km/h (3 Bft) 100,00 %
19.02.2019 15:14 11,9 C 17,8 C 11,7 C 70 % 1017,2 hPa 0,0 l/m 2 min 0 min 428 W/m 12,9 km/h (3 Bft) 100,00 %
19.02.2019 15:16 12,0 C 15,6 C 11,1 C 69 % 1017,2 hPa 0,0 l/m 2 min 0 min 348 W/m 16,1 km/h (3 Bft) 100,00 %
19.02.2019 15:18 12,0 C 13,9 C 10,6 C 68 % 1017,2 hPa 0,0 l/m 0 min 0 min 68 W/m 16,1 km/h (3 Bft) 100,00 %
19.02.2019 15:20 11,9 C 12,2 C 10,6 C 67 % 1017,2 hPa 0,0 l/m 0 min 0 min 70 W/m 19,3 km/h (3 Bft) 94,29 %
19.02.2019 15:22 11,8 C 11,7 C 10,0 C 67 % 1017,3 hPa 0,0 l/m 0 min 0 min 92 W/m 12,9 km/h (3 Bft) 91,49 %
19.02.2019 15:24 11,7 C 11,1 C 10,0 C 67 % 1017,3 hPa 0,0 l/m 0 min 0 min 130 W/m 12,9 km/h (3 Bft) 91,07 %
19.02.2019 15:26 11,7 C 13,3 C 10,6 C 68 % 1017,3 hPa 0,0 l/m 0 min 0 min 144 W/m 9,7 km/h (2 Bft) 84,78 %
19.02.2019 15:28 11,6 C 12,2 C 10,0 C 68 % 1017,3 hPa 0,0 l/m 0 min 0 min 121 W/m 19,3 km/h (3 Bft) 93,62 %
19.02.2019 15:30 11,5 C 11,1 C 10,0 C 67 % 1017,3 hPa 0,0 l/m 0 min 0 min 85 W/m 16,1 km/h (3 Bft) 89,36 %
19.02.2019 15:32 11,4 C 11,7 C 10,0 C 67 % 1017,3 hPa 0,0 l/m 0 min 0 min 111 W/m 19,3 km/h (3 Bft) 92,00 %
19.02.2019 15:34 11,3 C 12,8 C 10,0 C 68 % 1017,3 hPa 0,0 l/m 0 min 0 min 111 W/m 12,9 km/h (3 Bft) 86,96 %
19.02.2019 15:36 11,3 C 13,3 C 10,0 C 68 % 1017,4 hPa 0,0 l/m 0 min 0 min 111 W/m 12,9 km/h (3 Bft) 100,00 %
19.02.2019 15:38 11,3 C 12,2 C 10,0 C 69 % 1017,3 hPa 0,0 l/m 0 min 0 min 95 W/m 9,7 km/h (2 Bft) 100,00 %
19.02.2019 15:40 11,2 C 11,7 C 10,0 C 69 % 1017,3 hPa 0,0 l/m 0 min 0 min 76 W/m 19,3 km/h (3 Bft) 97,14 %
19.02.2019 15:42 11,2 C 11,1 C 9,4 C 69 % 1017,3 hPa 0,0 l/m 0 min 0 min 74 W/m 12,9 km/h (3 Bft) 97,87 %
19.02.2019 15:44 11,1 C 10,6 C 9,4 C 68 % 1017,4 hPa 0,0 l/m 0 min 0 min 84 W/m 12,9 km/h (3 Bft) 100,00 %
19.02.2019 15:46 11,0 C 11,7 C 9,4 C 68 % 1017,3 hPa 0,0 l/m 0 min 0 min 139 W/m 12,9 km/h (3 Bft) 100,00 %
19.02.2019 15:48 11,0 C 13,3 C 9,4 C 68 % 1017,3 hPa 0,0 l/m 2 min 0 min 280 W/m 12,9 km/h (3 Bft) 100,00 %
19.02.2019 15:50 11,0 C 12,8 C 10,0 C 69 % 1017,3 hPa 0,0 l/m 2 min 0 min 223 W/m 16,1 km/h (3 Bft) 100,00 %
19.02.2019 15:52 11,0 C 11,7 C 9,4 C 68 % 1017,3 hPa 0,0 l/m 0 min 0 min 93 W/m 16,1 km/h (3 Bft) 100,00 %
19.02.2019 15:54 10,9 C 11,1 C 9,4 C 68 % 1017,3 hPa 0,0 l/m 0 min 0 min 93 W/m 12,9 km/h (3 Bft) 100,00 %
19.02.2019 15:56 10,9 C 10,6 C 9,4 C 68 % 1017,4 hPa 0,0 l/m 0 min 0 min 112 W/m 6,4 km/h (2 Bft) 98,00 %
19.02.2019 15:58 10,9 C 12,2 C 10,0 C 68 % 1017,4 hPa 0,0 l/m 2 min 0 min 172 W/m 12,9 km/h (3 Bft) 100,00 %
19.02.2019 16:00 10,9 C 12,2 C 10,0 C 68 % 1017,3 hPa 0,0 l/m 2 min 0 min 172 W/m 19,3 km/h (3 Bft) 100,00 %
19.02.2019 16:02 10,9 C 12,2 C 10,0 C 68 % 1017,5 hPa 0,0 l/m 0 min 0 min 126 W/m 16,1 km/h (3 Bft) 100,00 %
19.02.2019 16:04 10,9 C 11,7 C 10,0 C 68 % 1017,4 hPa 0,0 l/m 2 min 0 min 236 W/m 16,1 km/h (3 Bft) 100,00 %
19.02.2019 16:06 10,9 C 11,7 C 10,0 C 68 % 1017,4 hPa 0,0 l/m 0 min 0 min 118 W/m 16,1 km/h (3 Bft) 96,92 %
19.02.2019 16:08 10,9 C 12,8 C 10,0 C 68 % 1017,3 hPa 0,0 l/m 2 min 0 min 241 W/m 6,4 km/h (2 Bft) 88,57 %
19.02.2019 16:10 10,9 C 13,3 C 10,0 C 69 % 1017,3 hPa 0,0 l/m 2 min 0 min 256 W/m 9,7 km/h (2 Bft) 100,00 %
19.02.2019 16:12 10,9 C 13,9 C 10,6 C 69 % 1017,3 hPa 0,0 l/m 2 min 0 min 265 W/m 12,9 km/h (3 Bft) 97,83 %
19.02.2019 16:14 11,0 C 12,8 C 10,6 C 68 % 1017,3 hPa 0,0 l/m 2 min 0 min 180 W/m 16,1 km/h (3 Bft) 97,87 %
19.02.2019 16:16 11,1 C 12,2 C 10,0 C 68 % 1017,3 hPa 0,0 l/m 2 min 0 min 131 W/m 19,3 km/h (3 Bft) 97,56 %
19.02.2019 16:18 11,0 C 11,7 C 10,0 C 67 % 1017,3 hPa 0,0 l/m 0 min 0 min 99 W/m 19,3 km/h (3 Bft) 97,87 %
19.02.2019 16:20 11,0 C 11,1 C 10,0 C 68 % 1017,3 hPa 0,0 l/m 2 min 0 min 121 W/m 16,1 km/h (3 Bft) 100,00 %
19.02.2019 16:22 11,0 C 11,1 C 10,0 C 67 % 1017,3 hPa 0,0 l/m 2 min 0 min 150 W/m 12,9 km/h (3 Bft) 97,83 %
19.02.2019 16:24 11,0 C 10,6 C 10,0 C 67 % 1017,3 hPa 0,0 l/m 2 min 0 min 114 W/m 29,0 km/h (5 Bft) 97,87 %
19.02.2019 16:26 11,0 C 11,1 C 10,0 C 68 % 1017,3 hPa 0,0 l/m 2 min 0 min 171 W/m 9,7 km/h (2 Bft) 100,00 %
19.02.2019 16:28 10,9 C 10,6 C 10,0 C 68 % 1017,3 hPa 0,0 l/m 2 min 0 min 106 W/m 9,7 km/h (2 Bft) 100,00 %
19.02.2019 16:30 10,9 C 10,6 C 10,0 C 68 % 1017,3 hPa 0,0 l/m 2 min 0 min 107 W/m 12,9 km/h (3 Bft) 100,00 %
19.02.2019 16:32 10,9 C 10,6 C 10,0 C 68 % 1017,3 hPa 0,0 l/m 0 min 0 min 85 W/m 19,3 km/h (3 Bft) 95,74 %
19.02.2019 16:34 10,9 C 10,0 C 9,4 C 68 % 1017,3 hPa 0,0 l/m 0 min 0 min 53 W/m 22,5 km/h (4 Bft) 95,74 %
19.02.2019 16:36 10,8 C 10,0 C 9,4 C 68 % 1017,3 hPa 0,0 l/m 0 min 0 min 40 W/m 12,9 km/h (3 Bft) 96,36 %
19.02.2019 16:38 10,8 C 10,0 C 9,4 C 67 % 1017,3 hPa 0,0 l/m 0 min 0 min 42 W/m 22,5 km/h (4 Bft) 95,83 %
19.02.2019 16:40 10,7 C 10,0 C 9,4 C 68 % 1017,3 hPa 0,0 l/m 0 min 0 min 46 W/m 12,9 km/h (3 Bft) 97,87 %
19.02.2019 16:42 10,7 C 10,0 C 9,4 C 68 % 1017,4 hPa 0,0 l/m 0 min 0 min 50 W/m 16,1 km/h (3 Bft) 95,74 %
19.02.2019 16:44 10,6 C 10,0 C 9,4 C 68 % 1017,4 hPa 0,0 l/m 0 min 0 min 47 W/m 19,3 km/h (3 Bft) 95,74 %
19.02.2019 16:46 10,6 C 10,0 C 9,4 C 69 % 1017,4 hPa 0,0 l/m 0 min 0 min 44 W/m 16,1 km/h (3 Bft) 95,65 %
19.02.2019 16:48 10,4 C 10,0 C 9,4 C 68 % 1017,4 hPa 0,0 l/m 0 min 0 min 44 W/m 12,9 km/h (3 Bft) 93,62 %
19.02.2019 16:50 10,4 C 9,4 C 9,4 C 69 % 1017,4 hPa 0,0 l/m 0 min 0 min 44 W/m 25,7 km/h (4 Bft) 95,74 %
19.02.2019 16:52 10,4 C 9,4 C 8,9 C 69 % 1017,4 hPa 0,0 l/m 0 min 0 min 39 W/m 16,1 km/h (3 Bft) 95,74 %
19.02.2019 16:54 10,4 C 9,4 C 8,9 C 69 % 1017,4 hPa 0,0 l/m 0 min 0 min 36 W/m 12,9 km/h (3 Bft) 93,88 %
19.02.2019 16:56 10,3 C 9,4 C 8,9 C 69 % 1017,4 hPa 0,0 l/m 0 min 0 min 37 W/m 9,7 km/h (2 Bft) 91,30 %
19.02.2019 16:58 10,3 C 9,4 C 8,9 C 70 % 1017,4 hPa 0,0 l/m 0 min 0 min 37 W/m 12,9 km/h (3 Bft) 93,62 %
19.02.2019 17:00 10,3 C 9,4 C 8,9 C 70 % 1017,4 hPa 0,0 l/m 0 min 0 min 37 W/m 19,3 km/h (3 Bft) 93,62 %
19.02.2019 17:02 10,2 C 9,4 C 8,9 C 70 % 1017,4 hPa 0,0 l/m 0 min 0 min 34 W/m 12,9 km/h (3 Bft) 88,57 %
19.02.2019 17:04 10,2 C 9,4 C 8,9 C 70 % 1017,5 hPa 0,0 l/m 0 min 0 min 35 W/m 9,7 km/h (2 Bft) 93,62 %
19.02.2019 17:06 10,2 C 9,4 C 8,9 C 70 % 1017,5 hPa 0,0 l/m 0 min 0 min 39 W/m 9,7 km/h (2 Bft) 88,14 %
19.02.2019 17:08 10,2 C 9,4 C 8,9 C 70 % 1017,5 hPa 0,0 l/m 0 min 0 min 39 W/m 12,9 km/h (3 Bft) 91,30 %
19.02.2019 17:10 10,2 C 9,4 C 8,9 C 70 % 1017,5 hPa 0,0 l/m 0 min 0 min 40 W/m 16,1 km/h (3 Bft) 94,44 %
19.02.2019 17:12 10,2 C 9,4 C 8,9 C 70 % 1017,6 hPa 0,0 l/m 0 min 0 min 41 W/m 12,9 km/h (3 Bft) 93,48 %
19.02.2019 17:14 10,1 C 9,4 C 8,9 C 70 % 1017,5 hPa 0,0 l/m 0 min 0 min 42 W/m 9,7 km/h (2 Bft) 89,36 %
19.02.2019 17:16 10,1 C 9,4 C 8,9 C 70 % 1017,5 hPa 0,0 l/m 0 min 0 min 36 W/m 12,9 km/h (3 Bft) 93,62 %
19.02.2019 17:18 10,1 C 9,4 C 8,9 C 70 % 1017,6 hPa 0,0 l/m 0 min 0 min 26 W/m 19,3 km/h (3 Bft) 93,62 %
19.02.2019 17:20 10,1 C 9,4 C 8,9 C 70 % 1017,5 hPa 0,0 l/m 0 min 0 min 19 W/m 19,3 km/h (3 Bft) 93,62 %
19.02.2019 17:22 10,1 C 9,4 C 8,9 C 70 % 1017,5 hPa 0,0 l/m 0 min 0 min 17 W/m 19,3 km/h (3 Bft) 95,74 %
19.02.2019 17:24 10,0 C 9,4 C 8,9 C 70 % 1017,6 hPa 0,0 l/m 0 min 0 min 16 W/m 12,9 km/h (3 Bft) 93,48 %
19.02.2019 17:26 10,0 C 8,9 C 8,9 C 70 % 1017,5 hPa 0,0 l/m 0 min 0 min 14 W/m 12,9 km/h (3 Bft) 95,74 %
19.02.2019 17:28 9,9 C 8,9 C 8,3 C 70 % 1017,5 hPa 0,0 l/m 0 min 0 min 12 W/m 6,4 km/h (2 Bft) 93,62 %
19.02.2019 17:30 9,9 C 8,9 C 8,3 C 71 % 1017,5 hPa 0,0 l/m 0 min 0 min 11 W/m 9,7 km/h (2 Bft) 95,74 %
19.02.2019 17:32 9,9 C 8,9 C 8,3 C 71 % 1017,5 hPa 0,0 l/m 0 min 0 min 10 W/m 9,7 km/h (2 Bft) 95,74 %
19.02.2019 17:34 9,9 C 8,9 C 8,3 C 71 % 1017,5 hPa 0,0 l/m 0 min 0 min 9 W/m 9,7 km/h (2 Bft) 96,30 %
19.02.2019 17:36 9,8 C 8,9 C 8,3 C 71 % 1017,6 hPa 0,0 l/m 0 min 0 min 9 W/m 9,7 km/h (2 Bft) 93,62 %
19.02.2019 17:38 9,8 C 8,3 C 8,3 C 71 % 1017,6 hPa 0,0 l/m 0 min 0 min 7 W/m 6,4 km/h (2 Bft) 95,74 %
19.02.2019 17:40 9,7 C 8,3 C 7,8 C 71 % 1017,6 hPa 0,0 l/m 0 min 0 min 7 W/m 6,4 km/h (2 Bft) 95,74 %
19.02.2019 17:42 9,7 C 8,3 C 7,8 C 71 % 1017,6 hPa 0,0 l/m 0 min 0 min 7 W/m 9,7 km/h (2 Bft) 93,62 %
19.02.2019 17:44 9,6 C 8,3 C 7,8 C 72 % 1017,6 hPa 0,0 l/m 0 min 0 min 5 W/m 6,4 km/h (2 Bft) 95,92 %
19.02.2019 17:46 9,6 C 8,3 C 7,8 C 72 % 1017,6 hPa 0,0 l/m 0 min 0 min 5 W/m 6,4 km/h (2 Bft) 97,92 %
19.02.2019 17:48 9,6 C 8,3 C 7,8 C 72 % 1017,6 hPa 0,0 l/m 0 min 0 min 5 W/m 6,4 km/h (2 Bft) 97,14 %
19.02.2019 17:50 9,5 C 8,3 C 7,8 C 72 % 1017,6 hPa 0,0 l/m 0 min 0 min 1 W/m 9,7 km/h (2 Bft) 97,87 %
19.02.2019 17:52 9,4 C 8,3 C 7,8 C 72 % 1017,6 hPa 0,0 l/m 0 min 0 min 0 W/m 9,7 km/h (2 Bft) 94,55 %
19.02.2019 17:54 9,4 C 7,8 C 7,8 C 72 % 1017,6 hPa 0,0 l/m 0 min 0 min 0 W/m 6,4 km/h (2 Bft) 97,87 %
19.02.2019 17:56 9,3 C 7,8 C 7,8 C 73 % 1017,6 hPa 0,0 l/m 0 min 0 min 0 W/m 12,9 km/h (3 Bft) 84,78 %
19.02.2019 17:58 9,3 C 7,8 C 7,2 C 72 % 1017,6 hPa 0,0 l/m 0 min 0 min 0 W/m 9,7 km/h (2 Bft) 87,23 %
19.02.2019 18:00 9,3 C 8,3 C 7,8 C 72 % 1017,6 hPa 0,0 l/m 0 min 0 min 0 W/m 9,7 km/h (2 Bft) 91,49 %
19.02.2019 18:02 9,2 C 7,8 C 7,2 C 73 % 1017,6 hPa 0,0 l/m 0 min 0 min 0 W/m 6,4 km/h (2 Bft) 92,00 %
19.02.2019 18:04 9,2 C 7,8 C 7,2 C 73 % 1017,7 hPa 0,0 l/m 0 min 0 min 0 W/m 9,7 km/h (2 Bft) 97,87 %
19.02.2019 18:08 9,1 C 7,8 C 7,2 C 73 % 1017,6 hPa 0,0 l/m 0 min 0 min 0 W/m 6,4 km/h (2 Bft) 97,87 %
19.02.2019 18:10 9,1 C 7,8 C 7,2 C 73 % 1017,7 hPa 0,0 l/m 0 min 0 min 0 W/m 6,4 km/h (2 Bft) 97,87 %
19.02.2019 18:12 9,0 C 7,8 C 7,2 C 73 % 1017,7 hPa 0,0 l/m 0 min 0 min 0 W/m 6,4 km/h (2 Bft) 100,00 %
19.02.2019 18:14 9,0 C 7,8 C 7,2 C 74 % 1017,7 hPa 0,0 l/m 0 min 0 min 0 W/m 6,4 km/h (2 Bft) 100,00 %
19.02.2019 18:16 8,9 C 7,8 C 7,2 C 74 % 1017,7 hPa 0,0 l/m 0 min 0 min 0 W/m 6,4 km/h (2 Bft) 100,00 %
19.02.2019 18:18 8,9 C 7,8 C 7,2 C 74 % 1017,8 hPa 0,0 l/m 0 min 0 min 0 W/m 6,4 km/h (2 Bft) 97,83 %
19.02.2019 18:20 8,9 C 7,8 C 7,2 C 74 % 1017,7 hPa 0,0 l/m 0 min 0 min 0 W/m 6,4 km/h (2 Bft) 97,87 %
19.02.2019 18:22 8,9 C 7,8 C 7,2 C 74 % 1017,7 hPa 0,0 l/m 0 min 0 min 0 W/m 3,2 km/h (1 Bft) 100,00 %
19.02.2019 18:24 8,8 C 7,2 C 6,7 C 75 % 1017,8 hPa 0,0 l/m 0 min 0 min 0 W/m 3,2 km/h (1 Bft) 100,00 %
19.02.2019 18:26 8,8 C 7,2 C 6,7 C 75 % 1017,8 hPa 0,0 l/m 0 min 0 min 0 W/m 6,4 km/h (2 Bft) 100,00 %
19.02.2019 18:28 8,8 C 7,2 C 6,7 C 75 % 1017,8 hPa 0,0 l/m 0 min 0 min 0 W/m 9,7 km/h (2 Bft) 97,87 %
19.02.2019 18:30 8,7 C 7,2 C 6,7 C 75 % 1017,8 hPa 0,0 l/m 0 min 0 min 0 W/m 3,2 km/h (1 Bft) 100,00 %
19.02.2019 18:32 8,7 C 7,2 C 6,7 C 75 % 1017,8 hPa 0,0 l/m 0 min 0 min 0 W/m 6,4 km/h (2 Bft) 100,00 %
19.02.2019 18:34 8,7 C 7,2 C 6,7 C 75 % 1017,8 hPa 0,0 l/m 0 min 0 min 0 W/m 0,0 km/h (0 Bft) 97,83 %
19.02.2019 18:36 8,6 C 7,2 C 6,7 C 75 % 1017,8 hPa 0,0 l/m 0 min 0 min 0 W/m 0,0 km/h (0 Bft) 100,00 %
19.02.2019 18:38 8,6 C 7,2 C 6,1 C 75 % 1017,8 hPa 0,0 l/m 0 min 0 min 0 W/m 0,0 km/h (0 Bft) 100,00 %
19.02.2019 18:40 8,5 C 7,2 C 6,1 C 76 % 1017,9 hPa 0,0 l/m 0 min 0 min 0 W/m 6,4 km/h (2 Bft) 100,00 %
19.02.2019 18:42 8,5 C 7,2 C 6,1 C 76 % 1017,8 hPa 0,0 l/m 0 min 0 min 0 W/m 3,2 km/h (1 Bft) 100,00 %
19.02.2019 18:44 8,4 C 7,2 C 6,1 C 76 % 1017,9 hPa 0,0 l/m 0 min 0 min 0 W/m 3,2 km/h (1 Bft) 100,00 %
19.02.2019 18:46 8,4 C 7,2 C 6,1 C 76 % 1017,9 hPa 0,0 l/m 0 min 0 min 0 W/m 3,2 km/h (1 Bft) 100,00 %
19.02.2019 18:48 8,4 C 7,2 C 6,1 C 76 % 1017,9 hPa 0,0 l/m 0 min 0 min 0 W/m 3,2 km/h (1 Bft) 98,18 %
19.02.2019 18:50 8,3 C 7,2 C 6,1 C 76 % 1017,9 hPa 0,0 l/m 0 min 0 min 0 W/m 3,2 km/h (1 Bft) 97,87 %
19.02.2019 18:52 8,3 C 7,2 C 6,1 C 76 % 1018,0 hPa 0,0 l/m 0 min 0 min 0 W/m 3,2 km/h (1 Bft) 98,00 %
19.02.2019 18:54 8,3 C 7,2 C 6,1 C 76 % 1018,0 hPa 0,0 l/m 0 min 0 min 0 W/m 3,2 km/h (1 Bft) 100,00 %
19.02.2019 18:56 8,2 C 7,2 C 6,1 C 76 % 1018,0 hPa 0,0 l/m 0 min 0 min 0 W/m 6,4 km/h (2 Bft) 97,87 %
19.02.2019 18:58 8,2 C 7,2 C 6,1 C 76 % 1018,1 hPa 0,0 l/m 0 min 0 min 0 W/m 0,0 km/h (0 Bft) 97,14 %
19.02.2019 19:00 8,2 C 7,2 C 6,1 C 76 % 1018,1 hPa 0,0 l/m 0 min 0 min 0 W/m 0,0 km/h (0 Bft) 97,87 %
19.02.2019 19:02 8,1 C 6,7 C 6,1 C 77 % 1018,1 hPa 0,0 l/m 0 min 0 min 0 W/m 0,0 km/h (0 Bft) 100,00 %
19.02.2019 19:04 8,1 C 6,7 C 6,1 C 77 % 1018,1 hPa 0,0 l/m 0 min 0 min 0 W/m 0,0 km/h (0 Bft) 97,87 %
19.02.2019 19:06 8,1 C 6,7 C 6,1 C 77 % 1018,3 hPa 0,0 l/m 0 min 0 min 0 W/m 0,0 km/h (0 Bft) 91,38 %
19.02.2019 19:08 8,0 C 6,7 C 6,1 C 77 % 1018,3 hPa 0,0 l/m 0 min 0 min 0 W/m 0,0 km/h (0 Bft) 91,67 %
19.02.2019 19:10 8,0 C 6,7 C 6,1 C 77 % 1018,3 hPa 0,0 l/m 0 min 0 min 0 W/m 0,0 km/h (0 Bft) 97,83 %
19.02.2019 19:12 7,9 C 6,7 C 6,1 C 77 % 1018,3 hPa 0,0 l/m 0 min 0 min 0 W/m 0,0 km/h (0 Bft) 97,87 %
19.02.2019 19:14 7,9 C 6,7 C 5,6 C 77 % 1018,4 hPa 0,0 l/m 0 min 0 min 0 W/m 0,0 km/h (0 Bft) 97,87 %
19.02.2019 19:16 7,9 C 6,1 C 5,0 C 77 % 1018,4 hPa 0,0 l/m 0 min 0 min 0 W/m 0,0 km/h (0 Bft) 98,18 %
19.02.2019 19:18 7,8 C 6,1 C 5,0 C 77 % 1018,5 hPa 0,0 l/m 0 min 0 min 0 W/m 0,0 km/h (0 Bft) 95,92 %
19.02.2019 19:20 7,8 C 6,1 C 5,0 C 77 % 1018,3 hPa 0,0 l/m 0 min 0 min 0 W/m 0,0 km/h (0 Bft) 95,74 %
19.02.2019 19:22 7,8 C 6,1 C 4,4 C 77 % 1018,4 hPa 0,0 l/m 0 min 0 min 0 W/m 0,0 km/h (0 Bft) 97,87 %
19.02.2019 19:24 7,8 C 6,1 C 4,4 C 77 % 1018,4 hPa 0,0 l/m 0 min 0 min 0 W/m 0,0 km/h (0 Bft) 97,87 %
19.02.2019 19:26 7,7 C 6,1 C 4,4 C 77 % 1018,4 hPa 0,0 l/m 0 min 0 min 0 W/m 0,0 km/h (0 Bft) 97,92 %
19.02.2019 19:28 7,7 C 6,1 C 4,4 C 77 % 1018,4 hPa 0,0 l/m 0 min 0 min 0 W/m 0,0 km/h (0 Bft) 100,00 %
19.02.2019 19:30 7,7 C 6,1 C 4,4 C 77 % 1018,4 hPa 0,0 l/m 0 min 0 min 0 W/m 0,0 km/h (0 Bft) 97,22 %
19.02.2019 19:32 7,6 C 5,6 C 3,9 C 77 % 1018,5 hPa 0,0 l/m 0 min 0 min 0 W/m 0,0 km/h (0 Bft) 98,08 %
19.02.2019 19:34 7,6 C 5,6 C 3,9 C 77 % 1018,5 hPa 0,0 l/m 0 min 0 min 0 W/m 0,0 km/h (0 Bft) 98,00 %
19.02.2019 19:36 7,5 C 5,6 C 3,9 C 77 % 1018,5 hPa 0,0 l/m 0 min 0 min 0 W/m 0,0 km/h (0 Bft) 98,00 %
19.02.2019 19:38 7,5 C 5,6 C 3,9 C 77 % 1018,5 hPa 0,0 l/m 0 min 0 min 0 W/m 0,0 km/h (0 Bft) 100,00 %
19.02.2019 19:40 7,4 C 5,6 C 3,9 C 77 % 1018,6 hPa 0,0 l/m 0 min 0 min 0 W/m 0,0 km/h (0 Bft) 100,00 %
19.02.2019 19:42 7,4 C 5,6 C 3,9 C 77 % 1018,5 hPa 0,0 l/m 0 min 0 min 0 W/m 0,0 km/h (0 Bft) 100,00 %
19.02.2019 19:44 7,3 C 5,6 C 3,9 C 77 % 1018,5 hPa 0,0 l/m 0 min 0 min 0 W/m 0,0 km/h (0 Bft) 97,83 %
19.02.2019 19:46 7,3 C 5,6 C 3,9 C 77 % 1018,5 hPa 0,0 l/m 0 min 0 min 0 W/m 0,0 km/h (0 Bft) 100,00 %
19.02.2019 19:48 7,3 C 5,6 C 3,9 C 78 % 1018,5 hPa 0,0 l/m 0 min 0 min 0 W/m 0,0 km/h (0 Bft) 100,00 %
19.02.2019 19:50 7,2 C 5,0 C 3,9 C 78 % 1018,6 hPa 0,0 l/m 0 min 0 min 0 W/m 0,0 km/h (0 Bft) 100,00 %
19.02.2019 19:52 7,2 C 5,6 C 3,9 C 78 % 1018,5 hPa 0,0 l/m 0 min 0 min 0 W/m 0,0 km/h (0 Bft) 100,00 %
19.02.2019 19:54 7,2 C 5,6 C 3,9 C 78 % 1018,5 hPa 0,0 l/m 0 min 0 min 0 W/m 0,0 km/h (0 Bft) 100,00 %
19.02.2019 19:56 7,1 C 5,6 C 3,9 C 78 % 1018,5 hPa 0,0 l/m 0 min 0 min 0 W/m 0,0 km/h (0 Bft) 98,18 %
19.02.2019 19:58 7,1 C 5,6 C 3,9 C 78 % 1018,6 hPa 0,0 l/m 0 min 0 min 0 W/m 0,0 km/h (0 Bft) 100,00 %
19.02.2019 20:00 7,0 C 5,6 C 3,9 C 78 % 1018,6 hPa 0,0 l/m 0 min 0 min 0 W/m 0,0 km/h (0 Bft) 97,87 %
19.02.2019 20:02 7,0 C 5,6 C 3,9 C 79 % 1018,5 hPa 0,0 l/m 0 min 0 min 0 W/m 0,0 km/h (0 Bft) 100,00 %
19.02.2019 20:04 6,9 C 5,6 C 3,9 C 79 % 1018,5 hPa 0,0 l/m 0 min 0 min 0 W/m 3,2 km/h (1 Bft) 97,96 %
19.02.2019 20:06 6,9 C 5,6 C 3,9 C 79 % 1018,5 hPa 0,0 l/m 0 min 0 min 0 W/m 3,2 km/h (1 Bft) 97,92 %
19.02.2019 20:08 6,9 C 5,6 C 3,9 C 79 % 1018,5 hPa 0,0 l/m 0 min 0 min 0 W/m 3,2 km/h (1 Bft) 100,00 %
19.02.2019 20:10 6,8 C 5,6 C 3,9 C 79 % 1018,6 hPa 0,0 l/m 0 min 0 min 0 W/m 3,2 km/h (1 Bft) 97,87 %
19.02.2019 20:12 6,8 C 6,1 C 3,9 C 80 % 1018,6 hPa 0,0 l/m 0 min 0 min 0 W/m 3,2 km/h (1 Bft) 97,87 %
19.02.2019 20:14 6,8 C 6,1 C 3,9 C 80 % 1018,6 hPa 0,0 l/m 0 min 0 min 0 W/m 3,2 km/h (1 Bft) 97,83 %
19.02.2019 20:16 6,7 C 6,1 C 4,4 C 80 % 1018,5 hPa 0,0 l/m 0 min 0 min 0 W/m 6,4 km/h (2 Bft) 95,74 %
19.02.2019 20:18 6,7 C 6,1 C 4,4 C 80 % 1018,6 hPa 0,0 l/m 0 min 0 min 0 W/m 3,2 km/h (1 Bft) 95,74 %
19.02.2019 20:20 6,7 C 6,1 C 4,4 C 80 % 1018,6 hPa 0,0 l/m 0 min 0 min 0 W/m 3,2 km/h (1 Bft) 97,87 %
19.02.2019 20:22 6,7 C 6,1 C 4,4 C 81 % 1018,6 hPa 0,0 l/m 0 min 0 min 0 W/m 0,0 km/h (0 Bft) 97,14 %
19.02.2019 20:24 6,7 C 6,1 C 4,4 C 81 % 1018,6 hPa 0,0 l/m 0 min 0 min 0 W/m 0,0 km/h (0 Bft) 97,87 %
19.02.2019 20:26 6,7 C 6,1 C 5,0 C 81 % 1018,6 hPa 0,0 l/m 0 min 0 min 0 W/m 3,2 km/h (1 Bft) 97,87 %
19.02.2019 20:28 6,6 C 6,1 C 5,0 C 81 % 1018,7 hPa 0,0 l/m 0 min 0 min 0 W/m 3,2 km/h (1 Bft) 97,87 %
19.02.2019 20:30 6,6 C 6,1 C 5,0 C 81 % 1018,6 hPa 0,0 l/m 0 min 0 min 0 W/m 3,2 km/h (1 Bft) 95,65 %
19.02.2019 20:32 6,6 C 6,1 C 4,4 C 81 % 1018,6 hPa 0,0 l/m 0 min 0 min 0 W/m 3,2 km/h (1 Bft) 95,74 %
19.02.2019 20:34 6,6 C 6,1 C 4,4 C 81 % 1018,6 hPa 0,0 l/m 0 min 0 min 0 W/m 3,2 km/h (1 Bft) 97,87 %
19.02.2019 20:36 6,6 C 6,1 C 4,4 C 81 % 1018,7 hPa 0,0 l/m 0 min 0 min 0 W/m 3,2 km/h (1 Bft) 94,92 %
19.02.2019 20:38 6,6 C 6,1 C 5,0 C 81 % 1018,6 hPa 0,0 l/m 0 min 0 min 0 W/m 0,0 km/h (0 Bft) 97,14 %
19.02.2019 20:40 6,6 C 6,1 C 5,0 C 81 % 1018,7 hPa 0,0 l/m 0 min 0 min 0 W/m 3,2 km/h (1 Bft) 97,87 %
19.02.2019 20:42 6,6 C 6,1 C 5,0 C 81 % 1018,6 hPa 0,0 l/m 0 min 0 min 0 W/m 3,2 km/h (1 Bft) 95,65 %
19.02.2019 20:44 6,6 C 6,1 C 5,0 C 81 % 1018,7 hPa 0,0 l/m 0 min 0 min 0 W/m 6,4 km/h (2 Bft) 95,74 %
19.02.2019 20:46 6,6 C 6,1 C 5,0 C 81 % 1018,7 hPa 0,0 l/m 0 min 0 min 0 W/m 3,2 km/h (1 Bft) 93,62 %
19.02.2019 20:48 6,6 C 6,1 C 5,0 C 81 % 1018,7 hPa 0,0 l/m 0 min 0 min 0 W/m 0,0 km/h (0 Bft) 95,74 %
19.02.2019 20:50 6,6 C 5,6 C 5,0 C 81 % 1018,7 hPa 0,0 l/m 0 min 0 min 0 W/m 3,2 km/h (1 Bft) 95,74 %
19.02.2019 20:52 6,6 C 5,6 C 5,0 C 81 % 1018,7 hPa 0,0 l/m 0 min 0 min 0 W/m 3,2 km/h (1 Bft) 91,49 %
19.02.2019 20:54 6,6 C 5,6 C 5,0 C 81 % 1018,7 hPa 0,0 l/m 0 min 0 min 0 W/m 0,0 km/h (0 Bft) 91,30 %
19.02.2019 20:56 6,5 C 5,6 C 4,4 C 81 % 1018,7 hPa 0,0 l/m 0 min 0 min 0 W/m 3,2 km/h (1 Bft) 78,72 %
19.02.2019 20:58 6,5 C 5,6 C 4,4 C 81 % 1018,7 hPa 0,0 l/m 0 min 0 min 0 W/m 3,2 km/h (1 Bft) 80,85 %
19.02.2019 21:00 6,5 C 5,6 C 4,4 C 81 % 1018,7 hPa 0,0 l/m 0 min 0 min 0 W/m 0,0 km/h (0 Bft) 85,11 %
19.02.2019 21:02 6,5 C 5,6 C 4,4 C 81 % 1018,7 hPa 0,0 l/m 0 min 0 min 0 W/m 0,0 km/h (0 Bft) 91,49 %
19.02.2019 21:04 6,5 C 5,6 C 4,4 C 81 % 1018,7 hPa 0,0 l/m 0 min 0 min 0 W/m 0,0 km/h (0 Bft) 76,09 %
19.02.2019 21:06 6,5 C 5,6 C 4,4 C 81 % 1018,8 hPa 0,0 l/m 0 min 0 min 0 W/m 0,0 km/h (0 Bft) 67,80 %
19.02.2019 21:08 6,4 C 5,6 C 4,4 C 81 % 1018,8 hPa 0,0 l/m 0 min 0 min 0 W/m 0,0 km/h (0 Bft) 70,73 %
19.02.2019 21:10 6,4 C 5,6 C 4,4 C 81 % 1018,9 hPa 0,0 l/m 0 min 0 min 0 W/m 3,2 km/h (1 Bft) 65,96 %
19.02.2019 21:12 6,4 C 6,1 C 4,4 C 82 % 1018,9 hPa 0,0 l/m 0 min 0 min 0 W/m 3,2 km/h (1 Bft) 74,47 %
19.02.2019 21:14 6,4 C 5,6 C 4,4 C 82 % 1018,9 hPa 0,0 l/m 0 min 0 min 0 W/m 3,2 km/h (1 Bft) 74,47 %
19.02.2019 21:16 6,4 C 5,6 C 4,4 C 82 % 1018,8 hPa 0,0 l/m 0 min 0 min 0 W/m 9,7 km/h (2 Bft) 62,50 %
19.02.2019 21:18 6,4 C 5,6 C 4,4 C 82 % 1018,8 hPa 0,0 l/m 0 min 0 min 0 W/m 6,4 km/h (2 Bft) 65,96 %
19.02.2019 21:20 6,4 C 5,6 C 4,4 C 82 % 1018,8 hPa 0,0 l/m 0 min 0 min 0 W/m 3,2 km/h (1 Bft) 72,34 %
19.02.2019 21:22 6,4 C 5,6 C 4,4 C 82 % 1018,8 hPa 0,0 l/m 0 min 0 min 0 W/m 6,4 km/h (2 Bft) 80,85 %
19.02.2019 21:24 6,4 C 5,6 C 4,4 C 82 % 1018,7 hPa 0,0 l/m 0 min 0 min 0 W/m 6,4 km/h (2 Bft) 74,47 %
19.02.2019 21:26 6,4 C 5,6 C 5,0 C 82 % 1018,8 hPa 0,0 l/m 0 min 0 min 0 W/m 6,4 km/h (2 Bft) 74,47 %
19.02.2019 21:28 6,4 C 5,6 C 4,4 C 82 % 1018,8 hPa 0,0 l/m 0 min 0 min 0 W/m 3,2 km/h (1 Bft) 65,22 %
19.02.2019 21:30 6,4 C 5,6 C 4,4 C 82 % 1018,8 hPa 0,0 l/m 0 min 0 min 0 W/m 3,2 km/h (1 Bft) 72,34 %
19.02.2019 21:32 6,4 C 5,6 C 4,4 C 82 % 1018,8 hPa 0,0 l/m 0 min 0 min 0 W/m 6,4 km/h (2 Bft) 70,21 %
19.02.2019 21:34 6,4 C 5,6 C 4,4 C 82 % 1018,8 hPa 0,0 l/m 0 min 0 min 0 W/m 6,4 km/h (2 Bft) 75,47 %
19.02.2019 21:36 6,4 C 5,6 C 4,4 C 82 % 1018,8 hPa 0,0 l/m 0 min 0 min 0 W/m 6,4 km/h (2 Bft) 74,14 %
19.02.2019 21:38 6,4 C 5,6 C 4,4 C 82 % 1018,9 hPa 0,0 l/m 0 min 0 min 0 W/m 3,2 km/h (1 Bft) 72,22 %
19.02.2019 21:40 6,3 C 5,6 C 5,0 C 82 % 1018,9 hPa 0,0 l/m 0 min 0 min 0 W/m 6,4 km/h (2 Bft) 72,34 %
19.02.2019 21:42 6,4 C 5,6 C 5,0 C 82 % 1018,9 hPa 0,0 l/m 0 min 0 min 0 W/m 6,4 km/h (2 Bft) 72,34 %
19.02.2019 21:44 6,3 C 5,6 C 5,0 C 82 % 1018,9 hPa 0,0 l/m 0 min 0 min 0 W/m 3,2 km/h (1 Bft) 70,21 %
19.02.2019 21:46 6,3 C 5,6 C 5,0 C 82 % 1018,9 hPa 0,0 l/m 0 min 0 min 0 W/m 3,2 km/h (1 Bft) 74,47 %
19.02.2019 21:48 6,3 C 5,6 C 5,0 C 82 % 1018,9 hPa 0,0 l/m 0 min 0 min 0 W/m 6,4 km/h (2 Bft) 82,98 %
19.02.2019 21:50 6,3 C 5,6 C 5,0 C 82 % 1019,0 hPa 0,0 l/m 0 min 0 min 0 W/m 6,4 km/h (2 Bft) 74,47 %
19.02.2019 21:52 6,3 C 5,6 C 5,0 C 82 % 1018,9 hPa 0,0 l/m 0 min 0 min 0 W/m 6,4 km/h (2 Bft) 72,34 %
19.02.2019 21:54 6,3 C 5,6 C 5,0 C 82 % 1019,0 hPa 0,0 l/m 0 min 0 min 0 W/m 6,4 km/h (2 Bft) 70,21 %
19.02.2019 21:56 6,3 C 5,6 C 5,0 C 82 % 1019,0 hPa 0,0 l/m 0 min 0 min 0 W/m 6,4 km/h (2 Bft) 70,21 %
19.02.2019 21:58 6,3 C 5,6 C 5,0 C 82 % 1019,0 hPa 0,0 l/m 0 min 0 min 0 W/m 6,4 km/h (2 Bft) 78,72 %
19.02.2019 22:00 6,3 C 5,6 C 5,0 C 82 % 1019,0 hPa 0,0 l/m 0 min 0 min 0 W/m 3,2 km/h (1 Bft) 72,34 %
19.02.2019 22:02 6,3 C 5,6 C 5,0 C 82 % 1018,9 hPa 0,0 l/m 0 min 0 min 0 W/m 6,4 km/h (2 Bft) 69,57 %
19.02.2019 22:04 6,3 C 5,6 C 5,0 C 82 % 1019,0 hPa 0,0 l/m 0 min 0 min 0 W/m 6,4 km/h (2 Bft) 82,98 %
19.02.2019 22:06 6,3 C 5,6 C 5,0 C 82 % 1019,0 hPa 0,0 l/m 0 min 0 min 0 W/m 3,2 km/h (1 Bft) 70,21 %
19.02.2019 22:08 6,3 C 5,6 C 5,0 C 82 % 1019,0 hPa 0,0 l/m 0 min 0 min 0 W/m 3,2 km/h (1 Bft) 81,25 %
19.02.2019 22:10 6,3 C 5,6 C 5,0 C 82 % 1019,0 hPa 0,0 l/m 0 min 0 min 0 W/m 6,4 km/h (2 Bft) 85,11 %
19.02.2019 22:12 6,3 C 5,6 C 5,0 C 83 % 1019,0 hPa 0,0 l/m 0 min 0 min 0 W/m 3,2 km/h (1 Bft) 97,83 %
19.02.2019 22:14 6,3 C 5,6 C 5,0 C 83 % 1019,0 hPa 0,0 l/m 0 min 0 min 0 W/m 6,4 km/h (2 Bft) 93,62 %
19.02.2019 22:16 6,3 C 5,6 C 5,0 C 83 % 1019,0 hPa 0,0 l/m 0 min 0 min 0 W/m 3,2 km/h (1 Bft) 98,00 %
19.02.2019 22:18 6,3 C 5,6 C 4,4 C 83 % 1019,0 hPa 0,0 l/m 0 min 0 min 0 W/m 3,2 km/h (1 Bft) 97,87 %
19.02.2019 22:20 6,3 C 5,6 C 4,4 C 83 % 1019,0 hPa 0,0 l/m 0 min 0 min 0 W/m 3,2 km/h (1 Bft) 97,87 %
19.02.2019 22:22 6,2 C 5,6 C 4,4 C 83 % 1019,0 hPa 0,0 l/m 0 min 0 min 0 W/m 3,2 km/h (1 Bft) 95,12 %
19.02.2019 22:24 6,2 C 5,6 C 4,4 C 83 % 1019,0 hPa 0,0 l/m 0 min 0 min 0 W/m 3,2 km/h (1 Bft) 95,74 %
19.02.2019 22:26 6,2 C 5,6 C 4,4 C 83 % 1019,1 hPa 0,0 l/m 0 min 0 min 0 W/m 6,4 km/h (2 Bft) 97,96 %
19.02.2019 22:28 6,2 C 5,0 C 4,4 C 83 % 1019,1 hPa 0,0 l/m 0 min 0 min 0 W/m 3,2 km/h (1 Bft) 97,87 %
19.02.2019 22:30 6,2 C 5,0 C 3,9 C 83 % 1019,1 hPa 0,0 l/m 0 min 0 min 0 W/m 3,2 km/h (1 Bft) 100,00 %
19.02.2019 22:32 6,2 C 5,0 C 3,9 C 83 % 1019,0 hPa 0,0 l/m 0 min 0 min 0 W/m 3,2 km/h (1 Bft) 96,00 %
19.02.2019 22:34 6,2 C 5,0 C 3,9 C 83 % 1019,0 hPa 0,0 l/m 0 min 0 min 0 W/m 0,0 km/h (0 Bft) 100,00 %
19.02.2019 22:36 6,1 C 5,0 C 3,9 C 83 % 1019,0 hPa 0,0 l/m 0 min 0 min 0 W/m 0,0 km/h (0 Bft) 100,00 %
19.02.2019 22:38 6,1 C 5,0 C 3,9 C 83 % 1019,0 hPa 0,0 l/m 0 min 0 min 0 W/m 0,0 km/h (0 Bft) 97,87 %
19.02.2019 22:40 6,1 C 5,0 C 3,9 C 83 % 1019,0 hPa 0,0 l/m 0 min 0 min 0 W/m 0,0 km/h (0 Bft) 100,00 %
19.02.2019 22:42 6,1 C 5,0 C 3,9 C 83 % 1019,0 hPa 0,0 l/m 0 min 0 min 0 W/m 0,0 km/h (0 Bft) 98,00 %
19.02.2019 22:44 6,1 C 5,0 C 3,9 C 83 % 1019,0 hPa 0,0 l/m 0 min 0 min 0 W/m 0,0 km/h (0 Bft) 100,00 %
19.02.2019 22:46 6,0 C 5,0 C 3,9 C 83 % 1019,0 hPa 0,0 l/m 0 min 0 min 0 W/m 0,0 km/h (0 Bft) 97,56 %
19.02.2019 22:48 6,0 C 5,0 C 3,9 C 83 % 1019,0 hPa 0,0 l/m 0 min 0 min 0 W/m 0,0 km/h (0 Bft) 100,00 %
19.02.2019 22:50 5,9 C 5,0 C 3,9 C 83 % 1019,0 hPa 0,0 l/m 0 min 0 min 0 W/m 0,0 km/h (0 Bft) 95,74 %
19.02.2019 22:52 5,9 C 5,0 C 3,9 C 83 % 1019,0 hPa 0,0 l/m 0 min 0 min 0 W/m 0,0 km/h (0 Bft) 100,00 %
19.02.2019 22:54 5,9 C 5,0 C 3,9 C 83 % 1018,9 hPa 0,0 l/m 0 min 0 min 0 W/m 0,0 km/h (0 Bft) 95,74 %
19.02.2019 22:56 5,9 C 5,0 C 3,3 C 83 % 1019,0 hPa 0,0 l/m 0 min 0 min 0 W/m 0,0 km/h (0 Bft) 98,00 %
19.02.2019 22:58 5,9 C 5,0 C 3,3 C 83 % 1018,9 hPa 0,0 l/m 0 min 0 min 0 W/m 0,0 km/h (0 Bft) 97,83 %
19.02.2019 23:00 5,8 C 5,0 C 3,3 C 83 % 1019,0 hPa 0,0 l/m 0 min 0 min 0 W/m 0,0 km/h (0 Bft) 100,00 %
19.02.2019 23:02 5,8 C 5,0 C 2,8 C 83 % 1019,1 hPa 0,0 l/m 0 min 0 min 0 W/m 0,0 km/h (0 Bft) 95,74 %
19.02.2019 23:04 5,8 C 5,0 C 2,8 C 83 % 1019,0 hPa 0,0 l/m 0 min 0 min 0 W/m 0,0 km/h (0 Bft) 97,87 %
19.02.2019 23:06 5,8 C 4,4 C 2,8 C 83 % 1019,0 hPa 0,0 l/m 0 min 0 min 0 W/m 0,0 km/h (0 Bft) 97,87 %
19.02.2019 23:08 5,7 C 4,4 C 2,8 C 83 % 1019,0 hPa 0,0 l/m 0 min 0 min 0 W/m 0,0 km/h (0 Bft) 97,87 %
19.02.2019 23:10 5,7 C 4,4 C 2,8 C 83 % 1019,0 hPa 0,0 l/m 0 min 0 min 0 W/m 0,0 km/h (0 Bft) 97,83 %
19.02.2019 23:12 5,7 C 4,4 C 2,8 C 84 % 1019,0 hPa 0,0 l/m 0 min 0 min 0 W/m 0,0 km/h (0 Bft) 97,22 %
19.02.2019 23:14 5,7 C 4,4 C 2,8 C 84 % 1019,0 hPa 0,0 l/m 0 min 0 min 0 W/m 0,0 km/h (0 Bft) 98,08 %
19.02.2019 23:16 5,7 C 4,4 C 2,8 C 84 % 1019,0 hPa 0,0 l/m 0 min 0 min 0 W/m 0,0 km/h (0 Bft) 96,00 %
19.02.2019 23:18 5,6 C 4,4 C 2,8 C 84 % 1019,0 hPa 0,0 l/m 0 min 0 min 0 W/m 0,0 km/h (0 Bft) 94,00 %
19.02.2019 23:20 5,6 C 4,4 C 2,8 C 84 % 1019,0 hPa 0,0 l/m 0 min 0 min 0 W/m 0,0 km/h (0 Bft) 95,74 %
19.02.2019 23:22 5,6 C 4,4 C 2,8 C 84 % 1018,9 hPa 0,0 l/m 0 min 0 min 0 W/m 0,0 km/h (0 Bft) 95,65 %
19.02.2019 23:24 5,6 C 4,4 C 2,8 C 84 % 1018,9 hPa 0,0 l/m 0 min 0 min 0 W/m 0,0 km/h (0 Bft) 93,62 %
19.02.2019 23:26 5,5 C 4,4 C 2,8 C 84 % 1018,9 hPa 0,0 l/m 0 min 0 min 0 W/m 0,0 km/h (0 Bft) 93,62 %
19.02.2019 23:28 5,5 C 4,4 C 2,8 C 84 % 1019,0 hPa 0,0 l/m 0 min 0 min 0 W/m 0,0 km/h (0 Bft) 95,74 %
19.02.2019 23:30 5,4 C 4,4 C 3,3 C 84 % 1019,0 hPa 0,0 l/m 0 min 0 min 0 W/m 0,0 km/h (0 Bft) 95,74 %
19.02.2019 23:32 5,4 C 4,4 C 3,3 C 84 % 1019,0 hPa 0,0 l/m 0 min 0 min 0 W/m 0,0 km/h (0 Bft) 95,74 %
19.02.2019 23:34 5,4 C 4,4 C 3,3 C 84 % 1019,0 hPa 0,0 l/m 0 min 0 min 0 W/m 0,0 km/h (0 Bft) 93,48 %
19.02.2019 23:36 5,4 C 4,4 C 3,3 C 84 % 1019,1 hPa 0,0 l/m 0 min 0 min 0 W/m 0,0 km/h (0 Bft) 95,74 %
19.02.2019 23:38 5,4 C 4,4 C 3,3 C 85 % 1019,0 hPa 0,0 l/m 0 min 0 min 0 W/m 0,0 km/h (0 Bft) 95,74 %
19.02.2019 23:40 5,4 C 4,4 C 3,9 C 85 % 1019,1 hPa 0,0 l/m 0 min 0 min 0 W/m 0,0 km/h (0 Bft) 97,87 %
19.02.2019 23:42 5,3 C 4,4 C 3,9 C 85 % 1019,2 hPa 0,0 l/m 0 min 0 min 0 W/m 0,0 km/h (0 Bft) 95,74 %
19.02.2019 23:44 5,3 C 4,4 C 3,9 C 85 % 1019,1 hPa 0,0 l/m 0 min 0 min 0 W/m 0,0 km/h (0 Bft) 95,65 %
19.02.2019 23:46 5,3 C 4,4 C 3,9 C 85 % 1019,1 hPa 0,0 l/m 0 min 0 min 0 W/m 0,0 km/h (0 Bft) 95,74 %
19.02.2019 23:48 5,3 C 4,4 C 3,9 C 85 % 1019,1 hPa 0,0 l/m 0 min 0 min 0 W/m 0,0 km/h (0 Bft) 97,87 %
19.02.2019 23:50 5,3 C 4,4 C 3,9 C 85 % 1019,0 hPa 0,0 l/m 0 min 0 min 0 W/m 0,0 km/h (0 Bft) 97,87 %
19.02.2019 23:52 5,3 C 4,4 C 3,9 C 85 % 1019,0 hPa 0,0 l/m 0 min 0 min 0 W/m 0,0 km/h (0 Bft) 97,87 %
19.02.2019 23:54 5,3 C 4,4 C 3,9 C 86 % 1019,2 hPa 0,0 l/m 0 min 0 min 0 W/m 0,0 km/h (0 Bft) 97,87 %
19.02.2019 23:56 5,3 C 4,4 C 3,9 C 86 % 1019,2 hPa 0,0 l/m 0 min 0 min 0 W/m 0,0 km/h (0 Bft) 97,83 %
19.02.2019 23:58 5,3 C 4,4 C 3,9 C 86 % 1019,2 hPa 0,0 l/m 0 min 0 min 0 W/m 0,0 km/h (0 Bft) 97,87 %
_ Min-Zeit 23:42 23:06 23:02 15:20 00:07 - - - - 18:34 21:16
Minimum _ 5,3 C 4,4 C 2,8 C 67 % 1013,5 hPa - - - - 0,0 km/h (0 Bft) 62,50 %
_ Max-Zeit 15:16 15:10 12:44 09:36 23:42 00:00 09:26 04:00 12:20 10:30 00:00
Maximum _ 12,0 C 17,8 C 13,9 C 93 % 1019,2 hPa 0,0 l/m 2 min 2 min 636 W/m 32,2 km/h
S-SW (5 Bft)
100,00 %
Durchschnitt _ 8,2 C 8,3 C 6,9 C 80 % 1016,6 hPa #0,0 l/m #4:36 h #22 min. 205 W/m 9,9 km/h (2 Bft) 95,35 %
© 2019 W. Hausmann